Time,TemperatureF,DewpointF,PressureIn,WindDirection,WindDirectionDegrees,WindSpeedMPH,WindSpeedGustMPH,Humidity,HourlyPrecipIn,Conditions,Clouds,dailyrainin,SoftwareType,DateUTC
2013-02-04 00:01:00,25.8,18.7,29.94,SSE,156,6.0,6.0,74,0.00,,---,0.00,VWS V14.01,2013-02-04 06:01:00,
2013-02-04 00:02:00,25.9,18.8,29.94,SSE,157,4.0,9.0,74,0.00,,---,0.00,VWS V14.01,2013-02-04 06:02:00,
2013-02-04 00:04:00,25.9,18.8,29.93,SSE,156,5.0,9.0,74,0.00,,---,0.00,VWS V14.01,2013-02-04 06:04:00,
2013-02-04 00:06:00,26.0,18.9,29.93,SSE,156,5.0,9.0,74,0.00,,---,0.00,VWS V14.01,2013-02-04 06:06:00,
2013-02-04 00:07:00,26.0,18.9,29.93,SSE,155,9.0,9.0,74,0.00,,---,0.00,VWS V14.01,2013-02-04 06:07:00,
2013-02-04 00:09:00,26.0,18.9,29.93,SSE,155,5.0,9.0,74,0.00,,---,0.00,VWS V14.01,2013-02-04 06:09:00,
2013-02-04 00:11:00,26.1,18.6,29.93,SSE,155,5.0,9.0,73,0.00,,---,0.00,VWS V14.01,2013-02-04 06:11:00,
2013-02-04 00:12:00,26.2,18.7,29.93,SSE,155,7.0,9.0,73,0.00,,---,0.00,VWS V14.01,2013-02-04 06:12:00,
2013-02-04 00:14:00,26.2,18.7,29.93,SSE,155,6.0,9.0,73,0.00,,---,0.00,VWS V14.01,2013-02-04 06:14:00,
2013-02-04 00:16:00,26.3,18.8,29.93,SSE,155,5.0,9.0,73,0.00,,---,0.00,VWS V14.01,2013-02-04 06:16:00,
2013-02-04 00:17:00,26.3,18.8,29.93,SSE,155,5.0,9.0,73,0.00,,---,0.00,VWS V14.01,2013-02-04 06:17:00,
2013-02-04 00:20:00,26.2,18.7,29.93,SSE,155,7.0,9.0,73,0.00,,---,0.00,VWS V14.01,2013-02-04 06:20:00,
2013-02-04 00:21:00,26.3,18.5,29.93,SSE,155,5.0,9.0,72,0.00,,---,0.00,VWS V14.01,2013-02-04 06:21:00,
2013-02-04 00:22:00,26.3,18.5,29.93,SSE,155,5.0,9.0,72,0.00,,---,0.00,VWS V14.01,2013-02-04 06:22:00,
2013-02-04 00:23:00,26.3,18.5,29.93,SSE,155,6.0,9.0,72,0.00,,---,0.00,VWS V14.01,2013-02-04 06:23:00,
2013-02-04 00:25:00,26.3,18.5,29.93,SSE,154,5.0,9.0,72,0.00,,---,0.00,VWS V14.01,2013-02-04 06:25:00,
2013-02-04 00:26:00,26.3,18.5,29.93,SSE,154,5.0,9.0,72,0.00,,---,0.00,VWS V14.01,2013-02-04 06:26:00,
2013-02-04 00:28:00,26.3,18.5,29.93,SSE,155,5.0,9.0,72,0.00,,---,0.00,VWS V14.01,2013-02-04 06:28:00,
2013-02-04 00:30:00,26.3,18.5,29.92,SSE,155,5.0,5.0,72,0.00,,---,0.00,VWS V14.01,2013-02-04 06:30:00,
2013-02-04 00:32:00,26.3,18.5,29.92,SSE,155,3.0,6.0,72,0.00,,---,0.00,VWS V14.01,2013-02-04 06:32:00,
2013-02-04 00:33:00,26.3,18.5,29.92,SSE,155,5.0,8.0,72,0.00,,---,0.00,VWS V14.01,2013-02-04 06:33:00,
2013-02-04 00:35:00,26.3,18.5,29.92,SSE,155,4.0,8.0,72,0.00,,---,0.00,VWS V14.01,2013-02-04 06:35:00,
2013-02-04 00:37:00,26.3,18.5,29.92,SSE,155,5.0,9.0,72,0.00,,---,0.00,VWS V14.01,2013-02-04 06:37:00,
2013-02-04 00:38:00,26.3,18.5,29.92,SSE,155,6.0,9.0,72,0.00,,---,0.00,VWS V14.01,2013-02-04 06:38:00,
2013-02-04 00:40:00,26.3,18.5,29.92,SSE,155,7.0,10.0,72,0.00,,---,0.00,VWS V14.01,2013-02-04 06:40:00,
2013-02-04 00:42:00,26.3,18.5,29.92,SSE,155,6.0,10.0,72,0.00,,---,0.00,VWS V14.01,2013-02-04 06:42:00,
2013-02-04 00:43:00,26.3,18.5,29.92,SSE,156,4.0,10.0,72,0.00,,---,0.00,VWS V14.01,2013-02-04 06:43:00,
2013-02-04 00:46:00,26.4,18.6,29.92,SSE,159,6.0,12.0,72,0.00,,---,0.00,VWS V14.01,2013-02-04 06:46:00,
2013-02-04 00:47:00,26.5,18.4,29.91,SSE,159,6.0,12.0,71,0.00,,---,0.00,VWS V14.01,2013-02-04 06:47:00,
2013-02-04 00:48:00,26.7,20.2,29.91,SSE,165,9.0,12.0,76,0.00,,---,0.00,VWS V14.01,2013-02-04 06:48:00,
2013-02-04 00:51:00,26.7,18.2,29.91,SSE,163,7.0,12.0,70,0.00,,---,0.00,VWS V14.01,2013-02-04 06:51:00,
2013-02-04 00:52:00,26.8,18.3,29.91,SSE,160,5.0,12.0,70,0.00,,---,0.00,VWS V14.01,2013-02-04 06:52:00,
2013-02-04 00:53:00,26.8,18.3,29.91,SSE,159,7.0,12.0,70,0.00,,---,0.00,VWS V14.01,2013-02-04 06:53:00,
2013-02-04 00:56:00,26.8,18.3,29.91,SSE,157,9.0,12.0,70,0.00,,---,0.00,VWS V14.01,2013-02-04 06:56:00,
2013-02-04 00:57:00,26.8,18.3,29.90,SSE,157,9.0,13.0,70,0.00,,---,0.00,VWS V14.01,2013-02-04 06:57:00,
2013-02-04 00:58:00,26.9,18.4,29.90,SSE,155,9.0,13.0,70,0.00,,---,0.00,VWS V14.01,2013-02-04 06:58:00,
2013-02-04 00:59:00,26.9,18.4,29.90,SSE,156,6.0,13.0,70,0.00,,---,0.00,VWS V14.01,2013-02-04 06:59:00,
2013-02-04 01:01:00,26.9,18.4,29.90,SSE,156,7.0,9.0,70,0.00,,---,0.00,VWS V14.01,2013-02-04 07:01:00,
2013-02-04 01:02:00,26.8,18.3,29.90,SSE,154,9.0,9.0,70,0.00,,---,0.00,VWS V14.01,2013-02-04 07:02:00,
2013-02-04 01:03:00,26.8,18.3,29.90,SSE,153,8.0,9.0,70,0.00,,---,0.00,VWS V14.01,2013-02-04 07:03:00,
2013-02-04 01:04:00,26.8,18.3,29.90,SSE,153,6.0,9.0,70,0.00,,---,0.00,VWS V14.01,2013-02-04 07:04:00,
2013-02-04 01:06:00,26.7,18.2,29.89,SSE,155,6.0,9.0,70,0.00,,---,0.00,VWS V14.01,2013-02-04 07:06:00,
2013-02-04 01:08:00,26.7,18.6,29.89,SSE,154,7.0,9.0,71,0.00,,---,0.00,VWS V14.01,2013-02-04 07:08:00,
2013-02-04 01:09:00,26.7,18.6,29.89,SSE,154,5.0,9.0,71,0.00,,---,0.00,VWS V14.01,2013-02-04 07:09:00,
2013-02-04 01:11:00,26.7,18.6,29.90,SSE,159,8.0,11.0,71,0.00,,---,0.00,VWS V14.01,2013-02-04 07:11:00,
2013-02-04 01:13:00,26.8,18.3,29.89,SSE,158,4.0,11.0,70,0.00,,---,0.00,VWS V14.01,2013-02-04 07:13:00,
2013-02-04 01:14:00,26.8,18.3,29.89,SSE,152,7.0,11.0,70,0.00,,---,0.00,VWS V14.01,2013-02-04 07:14:00,
2013-02-04 01:16:00,26.8,18.3,29.89,SSE,157,7.0,11.0,70,0.00,,---,0.00,VWS V14.01,2013-02-04 07:16:00,
2013-02-04 01:18:00,26.8,18.3,29.89,SSE,157,5.0,11.0,70,0.00,,---,0.00,VWS V14.01,2013-02-04 07:18:00,
2013-02-04 01:19:00,26.8,18.3,29.89,SSE,156,4.0,11.0,70,0.00,,---,0.00,VWS V14.01,2013-02-04 07:19:00,
2013-02-04 01:22:00,26.8,18.7,29.89,SSE,156,3.0,11.0,71,0.00,,---,0.00,VWS V14.01,2013-02-04 07:22:00,
2013-02-04 01:23:00,26.8,18.7,29.89,SSE,156,7.0,11.0,71,0.00,,---,0.00,VWS V14.01,2013-02-04 07:23:00,
2013-02-04 01:24:00,26.7,18.6,29.89,SSE,156,9.0,11.0,71,0.00,,---,0.00,VWS V14.01,2013-02-04 07:24:00,
2013-02-04 01:27:00,26.8,18.7,29.89,SSE,154,10.0,11.0,71,0.00,,---,0.00,VWS V14.01,2013-02-04 07:27:00,
2013-02-04 01:28:00,26.8,18.7,29.89,SSE,150,4.0,11.0,71,0.00,,---,0.00,VWS V14.01,2013-02-04 07:28:00,
2013-02-04 01:29:00,26.8,18.3,29.89,SSE,153,5.0,11.0,70,0.00,,---,0.00,VWS V14.01,2013-02-04 07:29:00,
2013-02-04 01:30:00,26.9,18.8,29.89,SSE,155,6.0,11.0,71,0.00,,---,0.00,VWS V14.01,2013-02-04 07:30:00,
2013-02-04 01:32:00,26.8,18.7,29.89,SSE,155,9.0,9.0,71,0.00,,---,0.00,VWS V14.01,2013-02-04 07:32:00,
2013-02-04 01:33:00,26.9,18.4,29.89,SSE,159,5.0,10.0,70,0.00,,---,0.00,VWS V14.01,2013-02-04 07:33:00,
2013-02-04 01:34:00,26.9,18.8,29.89,SSE,155,8.0,10.0,71,0.00,,---,0.00,VWS V14.01,2013-02-04 07:34:00,
2013-02-04 01:35:00,26.9,18.8,29.89,SSE,157,6.0,10.0,71,0.00,,---,0.00,VWS V14.01,2013-02-04 07:35:00,
2013-02-04 01:37:00,26.8,18.7,29.89,SSE,157,6.0,10.0,71,0.00,,---,0.00,VWS V14.01,2013-02-04 07:37:00,
2013-02-04 01:38:00,26.8,18.7,29.89,SSE,157,6.0,10.0,71,0.00,,---,0.00,VWS V14.01,2013-02-04 07:38:00,
2013-02-04 01:39:00,26.8,18.7,29.88,SSE,157,6.0,10.0,71,0.00,,---,0.00,VWS V14.01,2013-02-04 07:39:00,
2013-02-04 01:40:00,26.8,18.7,29.88,SSE,155,9.0,10.0,71,0.00,,---,0.00,VWS V14.01,2013-02-04 07:40:00,
2013-02-04 01:42:00,26.9,18.8,29.88,SSE,155,7.0,12.0,71,0.00,,---,0.00,VWS V14.01,2013-02-04 07:42:00,
2013-02-04 01:43:00,26.9,18.4,29.88,SSE,161,10.0,12.0,70,0.00,,---,0.00,VWS V14.01,2013-02-04 07:43:00,
2013-02-04 01:44:00,26.9,18.4,29.88,SSE,165,8.0,12.0,70,0.00,,---,0.00,VWS V14.01,2013-02-04 07:44:00,
2013-02-04 01:45:00,27.0,18.5,29.87,SSE,167,7.0,13.0,70,0.00,,---,0.00,VWS V14.01,2013-02-04 07:45:00,
2013-02-04 01:47:00,27.0,18.5,29.87,SSE,153,4.0,13.0,70,0.00,,---,0.00,VWS V14.01,2013-02-04 07:47:00,
2013-02-04 01:49:00,27.0,18.5,29.87,SSE,153,12.0,13.0,70,0.00,,---,0.00,VWS V14.01,2013-02-04 07:49:00,
2013-02-04 01:51:00,27.0,18.5,29.87,SSE,158,12.0,13.0,70,0.00,,---,0.00,VWS V14.01,2013-02-04 07:51:00,
2013-02-04 01:52:00,27.0,18.5,29.87,SSE,154,10.0,13.0,70,0.00,,---,0.00,VWS V14.01,2013-02-04 07:52:00,
2013-02-04 01:54:00,27.1,18.6,29.87,SSE,157,4.0,13.0,70,0.00,,---,0.00,VWS V14.01,2013-02-04 07:54:00,
2013-02-04 01:56:00,27.0,18.5,29.87,SSE,149,6.0,13.0,70,0.00,,---,0.00,VWS V14.01,2013-02-04 07:56:00,
2013-02-04 01:57:00,27.1,18.6,29.87,SSE,154,9.0,13.0,70,0.00,,---,0.00,VWS V14.01,2013-02-04 07:57:00,
2013-02-04 01:59:00,27.1,18.6,29.87,SSE,153,7.0,13.0,70,0.00,,---,0.00,VWS V14.01,2013-02-04 07:59:00,
2013-02-04 02:01:00,27.1,18.6,29.87,SSE,158,6.0,13.0,70,0.00,,---,0.00,VWS V14.01,2013-02-04 08:01:00,
2013-02-04 02:02:00,27.1,18.6,29.87,SSE,156,7.0,13.0,70,0.00,,---,0.00,VWS V14.01,2013-02-04 08:02:00,
2013-02-04 02:04:00,27.1,18.6,29.87,SSE,157,10.0,13.0,70,0.00,,---,0.00,VWS V14.01,2013-02-04 08:04:00,
2013-02-04 02:06:00,27.1,18.6,29.86,SSE,154,8.0,13.0,70,0.00,,---,0.00,VWS V14.01,2013-02-04 08:06:00,
2013-02-04 02:07:00,27.1,18.3,29.86,SSE,152,5.0,13.0,69,0.00,,---,0.00,VWS V14.01,2013-02-04 08:07:00,
2013-02-04 02:09:00,27.1,18.6,29.86,SE,144,7.0,13.0,70,0.00,,---,0.00,VWS V14.01,2013-02-04 08:09:00,
2013-02-04 02:11:00,27.0,18.5,29.86,SSE,148,6.0,13.0,70,0.00,,---,0.00,VWS V14.01,2013-02-04 08:11:00,
2013-02-04 02:12:00,27.1,18.6,29.86,SSE,158,8.0,13.0,70,0.00,,---,0.00,VWS V14.01,2013-02-04 08:12:00,
2013-02-04 02:14:00,27.1,18.3,29.86,SSE,155,6.0,13.0,69,0.00,,---,0.00,VWS V14.01,2013-02-04 08:14:00,
2013-02-04 02:16:00,27.1,18.3,29.86,SSE,148,8.0,13.0,69,0.00,,---,0.00,VWS V14.01,2013-02-04 08:16:00,
2013-02-04 02:18:00,27.2,18.4,29.85,SSE,163,11.0,13.0,69,0.00,,---,0.00,VWS V14.01,2013-02-04 08:18:00,
2013-02-04 02:19:00,27.2,18.4,29.85,SSE,152,7.0,13.0,69,0.00,,---,0.00,VWS V14.01,2013-02-04 08:19:00,
2013-02-04 02:21:00,27.4,18.6,29.85,SSE,157,9.0,14.0,69,0.00,,---,0.00,VWS V14.01,2013-02-04 08:21:00,
2013-02-04 02:23:00,27.4,18.6,29.85,SSE,155,11.0,14.0,69,0.00,,---,0.00,VWS V14.01,2013-02-04 08:23:00,
2013-02-04 02:24:00,27.4,18.2,29.85,SSE,155,9.0,14.0,68,0.00,,---,0.00,VWS V14.01,2013-02-04 08:24:00,
2013-02-04 02:25:00,27.4,18.2,29.85,SSE,162,10.0,14.0,68,0.00,,---,0.00,VWS V14.01,2013-02-04 08:25:00,
2013-02-04 02:26:00,27.4,18.2,29.85,SSE,160,12.0,14.0,68,0.00,,---,0.00,VWS V14.01,2013-02-04 08:26:00,
2013-02-04 02:28:00,27.4,18.2,29.85,SSE,148,5.0,14.0,68,0.00,,---,0.00,VWS V14.01,2013-02-04 08:28:00,
2013-02-04 02:30:00,27.4,18.2,29.85,SE,140,8.0,14.0,68,0.00,,---,0.00,VWS V14.01,2013-02-04 08:30:00,
2013-02-04 02:32:00,27.5,18.3,29.85,SSE,156,11.0,12.0,68,0.00,,---,0.00,VWS V14.01,2013-02-04 08:32:00,
2013-02-04 02:33:00,27.6,18.4,29.85,SSE,159,10.0,14.0,68,0.00,,---,0.00,VWS V14.01,2013-02-04 08:33:00,
2013-02-04 02:35:00,27.6,18.4,29.84,SSE,161,11.0,14.0,68,0.00,,---,0.00,VWS V14.01,2013-02-04 08:35:00,
2013-02-04 02:37:00,27.7,18.5,29.84,SSE,163,8.0,14.0,68,0.00,,---,0.00,VWS V14.01,2013-02-04 08:37:00,
2013-02-04 02:38:00,27.6,18.4,29.85,SSE,147,11.0,14.0,68,0.00,,---,0.00,VWS V14.01,2013-02-04 08:38:00,
2013-02-04 02:40:00,27.6,18.4,29.84,SSE,159,11.0,14.0,68,0.00,,---,0.00,VWS V14.01,2013-02-04 08:40:00,
2013-02-04 02:42:00,27.7,18.5,29.84,SSE,150,10.0,16.0,68,0.00,,---,0.00,VWS V14.01,2013-02-04 08:42:00,
2013-02-04 02:43:00,27.8,18.6,29.84,SSE,155,15.0,18.0,68,0.00,,---,0.00,VWS V14.01,2013-02-04 08:43:00,
2013-02-04 02:45:00,27.8,18.6,29.84,SSE,155,11.0,18.0,68,0.00,,---,0.00,VWS V14.01,2013-02-04 08:45:00,
2013-02-04 02:47:00,27.9,18.7,29.84,SSE,155,12.0,18.0,68,0.00,,---,0.00,VWS V14.01,2013-02-04 08:47:00,
2013-02-04 02:48:00,27.9,18.7,29.84,SSE,151,14.0,18.0,68,0.00,,---,0.00,VWS V14.01,2013-02-04 08:48:00,
2013-02-04 02:50:00,28.0,18.8,29.84,SSE,158,13.0,18.0,68,0.00,,---,0.00,VWS V14.01,2013-02-04 08:50:00,
2013-02-04 02:52:00,28.1,18.9,29.84,SSE,164,11.0,18.0,68,0.00,,---,0.00,VWS V14.01,2013-02-04 08:52:00,
2013-02-04 02:53:00,28.1,18.9,29.84,SSE,159,13.0,18.0,68,0.00,,---,0.00,VWS V14.01,2013-02-04 08:53:00,
2013-02-04 02:55:00,28.1,18.9,29.84,SSE,159,12.0,18.0,68,0.00,,---,0.00,VWS V14.01,2013-02-04 08:55:00,
2013-02-04 02:57:00,28.1,18.9,29.83,SSE,165,8.0,18.0,68,0.00,,---,0.00,VWS V14.01,2013-02-04 08:57:00,
2013-02-04 02:58:00,28.0,18.8,29.83,SSE,159,13.0,18.0,68,0.00,,---,0.00,VWS V14.01,2013-02-04 08:58:00,
2013-02-04 03:00:00,28.1,18.9,29.83,South,170,11.0,17.0,68,0.00,,---,0.00,VWS V14.01,2013-02-04 09:00:00,
2013-02-04 03:01:00,28.1,18.9,29.83,South,176,11.0,17.0,68,0.00,,---,0.00,VWS V14.01,2013-02-04 09:01:00,
2013-02-04 03:02:00,28.1,18.9,29.83,South,174,9.0,17.0,68,0.00,,---,0.00,VWS V14.01,2013-02-04 09:02:00,
2013-02-04 03:04:00,28.2,19.4,29.83,South,173,18.0,18.0,69,0.00,,---,0.00,VWS V14.01,2013-02-04 09:04:00,
2013-02-04 03:05:00,28.3,19.1,29.83,South,180,17.0,18.0,68,0.00,,---,0.00,VWS V14.01,2013-02-04 09:05:00,
2013-02-04 03:06:00,28.3,19.1,29.83,SSE,162,14.0,20.0,68,0.00,,---,0.00,VWS V14.01,2013-02-04 09:06:00,
2013-02-04 03:08:00,28.5,19.3,29.83,SSW,193,15.0,20.0,68,0.00,,---,0.00,VWS V14.01,2013-02-04 09:08:00,
2013-02-04 03:09:00,28.5,19.3,29.83,SSE,156,14.0,20.0,68,0.00,,---,0.00,VWS V14.01,2013-02-04 09:09:00,
2013-02-04 03:10:00,28.5,19.3,29.83,South,169,10.0,20.0,68,0.00,,---,0.00,VWS V14.01,2013-02-04 09:10:00,
2013-02-04 03:11:00,28.5,19.3,29.83,SSE,165,14.0,20.0,68,0.00,,---,0.00,VWS V14.01,2013-02-04 09:11:00,
2013-02-04 03:13:00,28.4,19.2,29.83,SSE,160,12.0,20.0,68,0.00,,---,0.00,VWS V14.01,2013-02-04 09:13:00,
2013-02-04 03:14:00,28.4,19.2,29.83,SSE,153,11.0,20.0,68,0.00,,---,0.00,VWS V14.01,2013-02-04 09:14:00,
2013-02-04 03:15:00,28.4,19.5,29.83,South,175,9.0,20.0,69,0.00,,---,0.00,VWS V14.01,2013-02-04 09:15:00,
2013-02-04 03:16:00,28.4,19.5,29.82,South,175,14.0,20.0,69,0.00,,---,0.00,VWS V14.01,2013-02-04 09:16:00,
2013-02-04 03:18:00,28.4,19.5,29.82,South,169,12.0,20.0,69,0.00,,---,0.00,VWS V14.01,2013-02-04 09:18:00,
2013-02-04 03:19:00,28.4,19.5,29.82,South,169,10.0,20.0,69,0.00,,---,0.00,VWS V14.01,2013-02-04 09:19:00,
2013-02-04 03:20:00,28.3,19.5,29.82,South,183,11.0,20.0,69,0.00,,---,0.00,VWS V14.01,2013-02-04 09:20:00,
2013-02-04 03:21:00,28.3,19.5,29.82,SSE,160,11.0,20.0,69,0.00,,---,0.00,VWS V14.01,2013-02-04 09:21:00,
2013-02-04 03:23:00,28.3,19.5,29.82,South,191,15.0,20.0,69,0.00,,---,0.00,VWS V14.01,2013-02-04 09:23:00,
2013-02-04 03:24:00,28.3,19.5,29.82,SSE,155,13.0,20.0,69,0.00,,---,0.00,VWS V14.01,2013-02-04 09:24:00,
2013-02-04 03:26:00,28.3,19.5,29.82,South,171,15.0,20.0,69,0.00,,---,0.00,VWS V14.01,2013-02-04 09:26:00,
2013-02-04 03:28:00,28.1,19.3,29.82,SSE,153,10.0,20.0,69,0.00,,---,0.00,VWS V14.01,2013-02-04 09:28:00,
2013-02-04 03:29:00,28.1,19.3,29.81,SSE,161,13.0,20.0,69,0.00,,---,0.00,VWS V14.01,2013-02-04 09:29:00,
2013-02-04 03:31:00,28.0,19.2,29.81,SSE,158,17.0,17.0,69,0.00,,---,0.00,VWS V14.01,2013-02-04 09:31:00,
2013-02-04 03:33:00,28.0,19.5,29.81,SSE,163,9.0,17.0,70,0.00,,---,0.00,VWS V14.01,2013-02-04 09:33:00,
2013-02-04 03:35:00,28.0,19.5,29.81,South,184,9.0,18.0,70,0.00,,---,0.00,VWS V14.01,2013-02-04 09:35:00,
2013-02-04 03:36:00,27.9,19.4,29.81,South,177,6.0,18.0,70,0.00,,---,0.00,VWS V14.01,2013-02-04 09:36:00,
2013-02-04 03:37:00,27.8,19.3,29.81,South,171,8.0,18.0,70,0.00,,---,0.00,VWS V14.01,2013-02-04 09:37:00,
2013-02-04 03:38:00,27.8,19.3,29.81,SSE,164,11.0,18.0,70,0.00,,---,0.00,VWS V14.01,2013-02-04 09:38:00,
2013-02-04 03:40:00,27.8,19.3,29.81,SSE,160,9.0,18.0,70,0.00,,---,0.00,VWS V14.01,2013-02-04 09:40:00,
2013-02-04 03:41:00,27.8,19.3,29.81,SSE,155,14.0,18.0,70,0.00,,---,0.00,VWS V14.01,2013-02-04 09:41:00,
2013-02-04 03:42:00,27.8,19.3,29.81,SSE,165,11.0,18.0,70,0.00,,---,0.00,VWS V14.01,2013-02-04 09:42:00,
2013-02-04 03:43:00,27.8,19.6,29.81,SSE,151,14.0,18.0,71,0.00,,---,0.00,VWS V14.01,2013-02-04 09:43:00,
2013-02-04 03:45:00,27.8,19.6,29.80,SSE,156,12.0,20.0,71,0.00,,---,0.00,VWS V14.01,2013-02-04 09:45:00,
2013-02-04 03:46:00,27.8,19.6,29.81,South,170,13.0,20.0,71,0.00,,---,0.00,VWS V14.01,2013-02-04 09:46:00,
2013-02-04 03:47:00,27.7,19.5,29.81,SSE,167,12.0,20.0,71,0.00,,---,0.00,VWS V14.01,2013-02-04 09:47:00,
2013-02-04 03:48:00,27.8,19.6,29.80,SSE,159,14.0,20.0,71,0.00,,---,0.00,VWS V14.01,2013-02-04 09:48:00,
2013-02-04 03:50:00,27.7,19.5,29.80,South,179,11.0,20.0,71,0.00,,---,0.00,VWS V14.01,2013-02-04 09:50:00,
2013-02-04 03:51:00,27.8,19.6,29.80,South,169,12.0,20.0,71,0.00,,---,0.00,VWS V14.01,2013-02-04 09:51:00,
2013-02-04 03:52:00,27.8,19.6,29.80,South,169,9.0,20.0,71,0.00,,---,0.00,VWS V14.01,2013-02-04 09:52:00,
2013-02-04 03:53:00,27.8,19.6,29.80,South,173,9.0,20.0,71,0.00,,---,0.00,VWS V14.01,2013-02-04 09:53:00,
2013-02-04 03:55:00,27.8,19.6,29.80,SSE,160,10.0,20.0,71,0.00,,---,0.00,VWS V14.01,2013-02-04 09:55:00,
2013-02-04 03:56:00,27.8,19.6,29.80,South,175,9.0,20.0,71,0.00,,---,0.00,VWS V14.01,2013-02-04 09:56:00,
2013-02-04 03:57:00,27.9,19.7,29.80,SSE,155,12.0,20.0,71,0.00,,---,0.00,VWS V14.01,2013-02-04 09:57:00,
2013-02-04 03:59:00,27.9,19.7,29.80,South,173,11.0,20.0,71,0.00,,---,0.00,VWS V14.01,2013-02-04 09:59:00,
2013-02-04 04:00:00,28.0,19.8,29.80,SSE,165,13.0,20.0,71,0.00,,---,0.00,VWS V14.01,2013-02-04 10:00:00,
2013-02-04 04:01:00,28.1,19.9,29.80,SSW,196,12.0,13.0,71,0.00,,---,0.00,VWS V14.01,2013-02-04 10:01:00,
2013-02-04 04:02:00,28.2,20.0,29.80,SSE,155,13.0,17.0,71,0.00,,---,0.00,VWS V14.01,2013-02-04 10:02:00,
2013-02-04 04:04:00,28.3,20.1,29.80,SSE,165,14.0,18.0,71,0.00,,---,0.00,VWS V14.01,2013-02-04 10:04:00,
2013-02-04 04:05:00,28.3,20.1,29.80,SSE,163,10.0,18.0,71,0.00,,---,0.00,VWS V14.01,2013-02-04 10:05:00,
2013-02-04 04:06:00,28.4,20.2,29.80,SSE,159,13.0,18.0,71,0.00,,---,0.00,VWS V14.01,2013-02-04 10:06:00,
2013-02-04 04:07:00,28.4,20.2,29.79,SSE,157,11.0,18.0,71,0.00,,---,0.00,VWS V14.01,2013-02-04 10:07:00,
2013-02-04 04:09:00,28.6,20.1,29.79,SSE,167,9.0,18.0,70,0.00,,---,0.00,VWS V14.01,2013-02-04 10:09:00,
2013-02-04 04:10:00,28.6,20.1,29.79,South,190,18.0,18.0,70,0.00,,---,0.00,VWS V14.01,2013-02-04 10:10:00,
2013-02-04 04:11:00,28.6,20.1,29.79,SSE,162,12.0,18.0,70,0.00,,---,0.00,VWS V14.01,2013-02-04 10:11:00,
2013-02-04 04:12:00,28.7,20.2,29.79,SSE,160,11.0,18.0,70,0.00,,---,0.00,VWS V14.01,2013-02-04 10:12:00,
2013-02-04 04:14:00,28.7,20.2,29.79,SSE,148,13.0,18.0,70,0.00,,---,0.00,VWS V14.01,2013-02-04 10:14:00,
2013-02-04 04:15:00,28.7,20.2,29.79,SSE,161,13.0,18.0,70,0.00,,---,0.00,VWS V14.01,2013-02-04 10:15:00,
2013-02-04 04:16:00,28.7,20.2,29.79,South,188,15.0,18.0,70,0.00,,---,0.00,VWS V14.01,2013-02-04 10:16:00,
2013-02-04 04:18:00,28.7,20.2,29.79,South,186,14.0,18.0,70,0.00,,---,0.00,VWS V14.01,2013-02-04 10:18:00,
2013-02-04 04:19:00,28.7,20.2,29.79,South,175,11.0,18.0,70,0.00,,---,0.00,VWS V14.01,2013-02-04 10:19:00,
2013-02-04 04:21:00,28.7,20.2,29.78,SSE,164,16.0,18.0,70,0.00,,---,0.00,VWS V14.01,2013-02-04 10:21:00,
2013-02-04 04:23:00,28.8,20.3,29.78,SSE,167,14.0,21.0,70,0.00,,---,0.00,VWS V14.01,2013-02-04 10:23:00,
2013-02-04 04:25:00,28.8,20.6,29.78,South,172,13.0,21.0,71,0.00,,---,0.00,VWS V14.01,2013-02-04 10:25:00,
2013-02-04 04:26:00,28.8,20.6,29.78,South,191,11.0,21.0,71,0.00,,---,0.00,VWS V14.01,2013-02-04 10:26:00,
2013-02-04 04:28:00,28.8,20.3,29.78,SSE,167,7.0,21.0,70,0.00,,---,0.00,VWS V14.01,2013-02-04 10:28:00,
2013-02-04 04:30:00,28.9,20.4,29.78,SSE,165,15.0,21.0,70,0.00,,---,0.00,VWS V14.01,2013-02-04 10:30:00,
2013-02-04 04:31:00,28.9,20.4,29.78,SSE,152,13.0,15.0,70,0.00,,---,0.00,VWS V14.01,2013-02-04 10:31:00,
2013-02-04 04:33:00,28.9,20.7,29.78,SSE,167,11.0,16.0,71,0.00,,---,0.00,VWS V14.01,2013-02-04 10:33:00,
2013-02-04 04:35:00,28.9,20.7,29.78,SSE,168,6.0,16.0,71,0.00,,---,0.00,VWS V14.01,2013-02-04 10:35:00,
2013-02-04 04:36:00,28.9,20.7,29.77,SSE,165,10.0,16.0,71,0.00,,---,0.00,VWS V14.01,2013-02-04 10:36:00,
2013-02-04 04:38:00,28.9,20.7,29.77,SSE,165,9.0,16.0,71,0.00,,---,0.00,VWS V14.01,2013-02-04 10:38:00,
2013-02-04 04:40:00,29.0,20.8,29.77,SSE,163,10.0,16.0,71,0.00,,---,0.00,VWS V14.01,2013-02-04 10:40:00,
2013-02-04 04:41:00,29.0,20.8,29.77,SSE,158,10.0,16.0,71,0.00,,---,0.00,VWS V14.01,2013-02-04 10:41:00,
2013-02-04 04:42:00,29.0,20.8,29.77,South,175,13.0,16.0,71,0.00,,---,0.00,VWS V14.01,2013-02-04 10:42:00,
2013-02-04 04:43:00,29.1,20.9,29.77,South,172,9.0,17.0,71,0.00,,---,0.00,VWS V14.01,2013-02-04 10:43:00,
2013-02-04 04:45:00,29.1,20.9,29.77,South,177,20.0,24.0,71,0.00,,---,0.00,VWS V14.01,2013-02-04 10:45:00,
2013-02-04 04:46:00,29.2,20.6,29.77,SSW,196,20.0,24.0,70,0.00,,---,0.00,VWS V14.01,2013-02-04 10:46:00,
2013-02-04 04:47:00,29.2,20.6,29.77,SSW,202,22.0,24.0,70,0.00,,---,0.00,VWS V14.01,2013-02-04 10:47:00,
2013-02-04 04:49:00,29.2,20.6,29.77,South,171,12.0,24.0,70,0.00,,---,0.00,VWS V14.01,2013-02-04 10:49:00,
2013-02-04 04:50:00,29.3,20.7,29.77,South,171,21.0,24.0,70,0.00,,---,0.00,VWS V14.01,2013-02-04 10:50:00,
2013-02-04 04:51:00,29.3,20.7,29.77,SSE,164,10.0,24.0,70,0.00,,---,0.00,VWS V14.01,2013-02-04 10:51:00,
2013-02-04 04:52:00,29.3,20.7,29.77,SSE,150,16.0,24.0,70,0.00,,---,0.00,VWS V14.01,2013-02-04 10:52:00,
2013-02-04 04:54:00,29.3,21.1,29.77,SSW,192,11.0,24.0,71,0.00,,---,0.00,VWS V14.01,2013-02-04 10:54:00,
2013-02-04 04:56:00,29.3,21.1,29.76,SSE,165,7.0,24.0,71,0.00,,---,0.00,VWS V14.01,2013-02-04 10:56:00,
2013-02-04 04:57:00,29.4,21.2,29.77,SSE,164,10.0,24.0,71,0.00,,---,0.00,VWS V14.01,2013-02-04 10:57:00,
2013-02-04 04:59:00,29.5,20.9,29.76,South,186,14.0,24.0,70,0.00,,---,0.00,VWS V14.01,2013-02-04 10:59:00,
2013-02-04 05:01:00,29.5,21.3,29.76,South,177,12.0,17.0,71,0.00,,---,0.00,VWS V14.01,2013-02-04 11:01:00,
2013-02-04 05:02:00,29.6,21.0,29.76,South,191,12.0,18.0,70,0.00,,---,0.00,VWS V14.01,2013-02-04 11:02:00,
2013-02-04 05:04:00,29.6,21.4,29.76,South,183,14.0,18.0,71,0.00,,---,0.00,VWS V14.01,2013-02-04 11:04:00,
2013-02-04 05:06:00,29.5,21.3,29.76,SSE,152,13.0,18.0,71,0.00,,---,0.00,VWS V14.01,2013-02-04 11:06:00,
2013-02-04 05:07:00,29.5,21.3,29.76,SSE,163,14.0,19.0,71,0.00,,---,0.00,VWS V14.01,2013-02-04 11:07:00,
2013-02-04 05:09:00,29.6,21.4,29.76,South,181,9.0,19.0,71,0.00,,---,0.00,VWS V14.01,2013-02-04 11:09:00,
2013-02-04 05:11:00,29.6,21.4,29.76,South,181,9.0,19.0,71,0.00,,---,0.00,VWS V14.01,2013-02-04 11:11:00,
2013-02-04 05:12:00,29.6,21.4,29.76,SSE,154,10.0,19.0,71,0.00,,---,0.00,VWS V14.01,2013-02-04 11:12:00,
2013-02-04 05:15:00,29.7,21.5,29.76,South,171,11.0,19.0,71,0.00,,---,0.00,VWS V14.01,2013-02-04 11:15:00,
2013-02-04 05:16:00,29.8,21.6,29.76,SSE,167,15.0,20.0,71,0.00,,---,0.00,VWS V14.01,2013-02-04 11:16:00,
2013-02-04 05:17:00,29.8,21.6,29.76,South,172,11.0,20.0,71,0.00,,---,0.00,VWS V14.01,2013-02-04 11:17:00,
2013-02-04 05:20:00,29.9,21.7,29.76,South,187,11.0,20.0,71,0.00,,---,0.00,VWS V14.01,2013-02-04 11:20:00,
2013-02-04 05:21:00,29.9,21.7,29.76,South,169,11.0,20.0,71,0.00,,---,0.00,VWS V14.01,2013-02-04 11:21:00,
2013-02-04 05:22:00,29.9,21.7,29.76,SSE,149,15.0,20.0,71,0.00,,---,0.00,VWS V14.01,2013-02-04 11:22:00,
2013-02-04 05:25:00,30.0,21.8,29.76,South,175,14.0,20.0,71,0.00,,---,0.00,VWS V14.01,2013-02-04 11:25:00,
2013-02-04 05:26:00,30.1,21.9,29.76,SSW,195,13.0,20.0,71,0.00,,---,0.00,VWS V14.01,2013-02-04 11:26:00,
2013-02-04 05:27:00,30.1,21.9,29.76,South,188,15.0,20.0,71,0.00,,---,0.00,VWS V14.01,2013-02-04 11:27:00,
2013-02-04 05:28:00,30.0,21.8,29.76,South,187,16.0,20.0,71,0.00,,---,0.00,VWS V14.01,2013-02-04 11:28:00,
2013-02-04 05:30:00,30.0,21.8,29.76,SE,137,13.0,21.0,71,0.00,,---,0.00,VWS V14.01,2013-02-04 11:30:00,
2013-02-04 05:31:00,30.0,21.8,29.76,South,182,16.0,16.0,71,0.00,,---,0.00,VWS V14.01,2013-02-04 11:31:00,
2013-02-04 05:32:00,29.9,21.7,29.76,South,169,12.0,18.0,71,0.00,,---,0.00,VWS V14.01,2013-02-04 11:32:00,
2013-02-04 05:33:00,29.9,21.7,29.76,South,180,16.0,18.0,71,0.00,,---,0.00,VWS V14.01,2013-02-04 11:33:00,
2013-02-04 05:35:00,30.0,21.8,29.76,South,169,13.0,19.0,71,0.00,,---,0.00,VWS V14.01,2013-02-04 11:35:00,
2013-02-04 05:36:00,30.0,21.8,29.75,South,191,16.0,19.0,71,0.00,,---,0.00,VWS V14.01,2013-02-04 11:36:00,
2013-02-04 05:38:00,30.0,22.1,29.75,South,189,13.0,19.0,72,0.00,,---,0.00,VWS V14.01,2013-02-04 11:38:00,
2013-02-04 05:40:00,30.1,21.9,29.75,SSE,152,11.0,19.0,71,0.00,,---,0.00,VWS V14.01,2013-02-04 11:40:00,
2013-02-04 05:41:00,30.1,21.9,29.75,South,186,12.0,19.0,71,0.00,,---,0.00,VWS V14.01,2013-02-04 11:41:00,
2013-02-04 05:43:00,30.1,21.9,29.75,South,169,11.0,19.0,71,0.00,,---,0.00,VWS V14.01,2013-02-04 11:43:00,
2013-02-04 05:45:00,30.2,21.9,29.75,South,179,14.0,19.0,71,0.00,,---,0.00,VWS V14.01,2013-02-04 11:45:00,
2013-02-04 05:46:00,30.2,21.9,29.75,South,184,13.0,19.0,71,0.00,,---,0.00,VWS V14.01,2013-02-04 11:46:00,
2013-02-04 05:48:00,30.2,21.9,29.75,South,179,13.0,19.0,71,0.00,,---,0.00,VWS V14.01,2013-02-04 11:48:00,
2013-02-04 05:49:00,30.2,21.9,29.75,South,188,10.0,19.0,71,0.00,,---,0.00,VWS V14.01,2013-02-04 11:49:00,
2013-02-04 05:51:00,30.2,21.9,29.75,South,184,10.0,19.0,71,0.00,,---,0.00,VWS V14.01,2013-02-04 11:51:00,
2013-02-04 05:53:00,30.2,22.3,29.75,South,175,10.0,19.0,72,0.00,,---,0.00,VWS V14.01,2013-02-04 11:53:00,
2013-02-04 05:54:00,30.2,22.3,29.75,South,184,13.0,19.0,72,0.00,,---,0.00,VWS V14.01,2013-02-04 11:54:00,
2013-02-04 05:56:00,30.2,22.3,29.75,SSE,155,13.0,19.0,72,0.00,,---,0.00,VWS V14.01,2013-02-04 11:56:00,
2013-02-04 05:57:00,30.2,22.3,29.75,SSE,158,12.0,21.0,72,0.00,,---,0.00,VWS V14.01,2013-02-04 11:57:00,
2013-02-04 05:58:00,30.2,22.3,29.75,South,169,12.0,21.0,72,0.00,,---,0.00,VWS V14.01,2013-02-04 11:58:00,
2013-02-04 05:59:00,30.2,22.3,29.75,SSE,168,15.0,21.0,72,0.00,,---,0.00,VWS V14.01,2013-02-04 11:59:00,
2013-02-04 06:01:00,30.2,22.3,29.75,South,180,15.0,18.0,72,0.00,,---,0.00,VWS V14.01,2013-02-04 12:01:00,
2013-02-04 06:02:00,30.2,22.3,29.75,South,172,12.0,18.0,72,0.00,,---,0.00,VWS V14.01,2013-02-04 12:02:00,
2013-02-04 06:03:00,30.2,22.3,29.75,South,178,9.0,18.0,72,0.00,,---,0.00,VWS V14.01,2013-02-04 12:03:00,
2013-02-04 06:04:00,30.2,22.3,29.75,South,175,7.0,18.0,72,0.00,,---,0.00,VWS V14.01,2013-02-04 12:04:00,
2013-02-04 06:06:00,30.2,22.3,29.75,SSE,163,9.0,18.0,72,0.00,,---,0.00,VWS V14.01,2013-02-04 12:06:00,
2013-02-04 06:07:00,30.2,22.3,29.75,South,182,13.0,19.0,72,0.00,,---,0.00,VWS V14.01,2013-02-04 12:07:00,
2013-02-04 06:08:00,30.2,22.3,29.75,South,189,14.0,19.0,72,0.00,,---,0.00,VWS V14.01,2013-02-04 12:08:00,
2013-02-04 06:09:00,30.2,22.3,29.75,South,191,13.0,19.0,72,0.00,,---,0.00,VWS V14.01,2013-02-04 12:09:00,
2013-02-04 06:11:00,30.2,22.3,29.74,South,180,12.0,19.0,72,0.00,,---,0.00,VWS V14.01,2013-02-04 12:11:00,
2013-02-04 06:12:00,30.2,22.6,29.74,South,184,10.0,19.0,73,0.00,,---,0.00,VWS V14.01,2013-02-04 12:12:00,
2013-02-04 06:13:00,30.2,22.3,29.74,SSW,197,15.0,19.0,72,0.00,,---,0.00,VWS V14.01,2013-02-04 12:13:00,
2013-02-04 06:14:00,30.2,22.3,29.74,SSW,207,13.0,20.0,72,0.00,,---,0.00,VWS V14.01,2013-02-04 12:14:00,
2013-02-04 06:16:00,30.2,22.3,29.74,South,178,13.0,20.0,72,0.00,,---,0.00,VWS V14.01,2013-02-04 12:16:00,
2013-02-04 06:17:00,30.2,22.6,29.74,South,179,13.0,20.0,73,0.00,,---,0.00,VWS V14.01,2013-02-04 12:17:00,
2013-02-04 06:19:00,30.2,22.6,29.74,South,175,12.0,20.0,73,0.00,,---,0.00,VWS V14.01,2013-02-04 12:19:00,
2013-02-04 06:21:00,30.3,22.7,29.74,SSW,199,12.0,20.0,73,0.00,,---,0.00,VWS V14.01,2013-02-04 12:21:00,
2013-02-04 06:22:00,30.2,22.6,29.73,SSE,158,10.0,20.0,73,0.00,,---,0.00,VWS V14.01,2013-02-04 12:22:00,
2013-02-04 06:24:00,30.3,22.7,29.74,SSE,168,9.0,20.0,73,0.00,,---,0.00,VWS V14.01,2013-02-04 12:24:00,
2013-02-04 06:26:00,30.3,22.7,29.74,SSE,164,11.0,20.0,73,0.00,,---,0.00,VWS V14.01,2013-02-04 12:26:00,
2013-02-04 06:27:00,30.3,22.7,29.73,South,170,15.0,20.0,73,0.00,,---,0.00,VWS V14.01,2013-02-04 12:27:00,
2013-02-04 06:29:00,30.3,22.7,29.73,South,187,15.0,20.0,73,0.00,,---,0.00,VWS V14.01,2013-02-04 12:29:00,
2013-02-04 06:31:00,30.3,22.7,29.73,South,185,12.0,15.0,73,0.00,,---,0.00,VWS V14.01,2013-02-04 12:31:00,
2013-02-04 06:32:00,30.4,22.8,29.74,South,182,12.0,18.0,73,0.00,,---,0.00,VWS V14.01,2013-02-04 12:32:00,
2013-02-04 06:34:00,30.4,22.8,29.74,South,191,11.0,18.0,73,0.00,,---,0.00,VWS V14.01,2013-02-04 12:34:00,
2013-02-04 06:36:00,30.5,22.9,29.73,SSE,165,12.0,18.0,73,0.00,,---,0.00,VWS V14.01,2013-02-04 12:36:00,
2013-02-04 06:37:00,30.5,22.9,29.73,South,180,10.0,18.0,73,0.00,,---,0.00,VWS V14.01,2013-02-04 12:37:00,
2013-02-04 06:39:00,30.5,22.9,29.73,South,178,11.0,18.0,73,0.00,,---,0.00,VWS V14.01,2013-02-04 12:39:00,
2013-02-04 06:41:00,30.5,22.9,29.73,SSW,209,14.0,18.0,73,0.00,,---,0.00,VWS V14.01,2013-02-04 12:41:00,
2013-02-04 06:42:00,30.5,22.9,29.74,SSW,196,13.0,18.0,73,0.00,,---,0.00,VWS V14.01,2013-02-04 12:42:00,
2013-02-04 06:44:00,30.5,22.9,29.73,South,184,12.0,18.0,73,0.00,,---,0.00,VWS V14.01,2013-02-04 12:44:00,
2013-02-04 06:46:00,30.5,22.9,29.73,SSW,211,15.0,18.0,73,0.00,,---,0.00,VWS V14.01,2013-02-04 12:46:00,
2013-02-04 06:48:00,30.5,22.9,29.73,SSE,165,9.0,18.0,73,0.00,,---,0.00,VWS V14.01,2013-02-04 12:48:00,
2013-02-04 06:49:00,30.5,22.9,29.73,South,173,9.0,18.0,73,0.00,,---,0.00,VWS V14.01,2013-02-04 12:49:00,
2013-02-04 06:50:00,30.5,22.9,29.73,SSE,164,16.0,18.0,73,0.00,,---,0.00,VWS V14.01,2013-02-04 12:50:00,
2013-02-04 06:51:00,30.5,22.9,29.73,South,187,9.0,18.0,73,0.00,,---,0.00,VWS V14.01,2013-02-04 12:51:00,
2013-02-04 06:53:00,30.5,22.9,29.73,South,182,10.0,18.0,73,0.00,,---,0.00,VWS V14.01,2013-02-04 12:53:00,
2013-02-04 06:54:00,30.5,22.9,29.73,South,178,10.0,18.0,73,0.00,,---,0.00,VWS V14.01,2013-02-04 12:54:00,
2013-02-04 06:55:00,30.5,22.9,29.73,South,178,9.0,18.0,73,0.00,,---,0.00,VWS V14.01,2013-02-04 12:55:00,
2013-02-04 06:56:00,30.5,22.9,29.73,SSE,163,9.0,18.0,73,0.00,,---,0.00,VWS V14.01,2013-02-04 12:56:00,
2013-02-04 06:58:00,30.5,22.9,29.73,South,190,10.0,18.0,73,0.00,,---,0.00,VWS V14.01,2013-02-04 12:58:00,
2013-02-04 06:59:00,30.5,22.9,29.73,SSE,161,10.0,18.0,73,0.00,,---,0.00,VWS V14.01,2013-02-04 12:59:00,
2013-02-04 07:00:00,30.5,22.9,29.73,South,186,11.0,18.0,73,0.00,,---,0.00,VWS V14.01,2013-02-04 13:00:00,
2013-02-04 07:01:00,30.5,22.9,29.73,SSE,158,10.0,13.0,73,0.00,,---,0.00,VWS V14.01,2013-02-04 13:01:00,
2013-02-04 07:03:00,30.5,22.9,29.73,SSE,163,10.0,20.0,73,0.00,,---,0.00,VWS V14.01,2013-02-04 13:03:00,
2013-02-04 07:05:00,30.6,23.0,29.73,South,174,9.0,20.0,73,0.00,,---,0.00,VWS V14.01,2013-02-04 13:05:00,
2013-02-04 07:06:00,30.5,22.9,29.73,South,177,15.0,20.0,73,0.00,,---,0.00,VWS V14.01,2013-02-04 13:06:00,
2013-02-04 07:08:00,30.5,22.9,29.73,South,181,12.0,20.0,73,0.00,,---,0.00,VWS V14.01,2013-02-04 13:08:00,
2013-02-04 07:10:00,30.5,22.9,29.73,South,182,7.0,20.0,73,0.00,,---,0.00,VWS V14.01,2013-02-04 13:10:00,
2013-02-04 07:11:00,30.5,22.9,29.73,South,184,10.0,20.0,73,0.00,,---,0.00,VWS V14.01,2013-02-04 13:11:00,
2013-02-04 07:13:00,30.5,22.9,29.73,South,174,11.0,20.0,73,0.00,,---,0.00,VWS V14.01,2013-02-04 13:13:00,
2013-02-04 07:15:00,30.6,23.0,29.73,SSW,195,14.0,20.0,73,0.00,,---,0.00,VWS V14.01,2013-02-04 13:15:00,
2013-02-04 07:17:00,30.6,23.0,29.73,SSE,166,9.0,20.0,73,0.00,,---,0.00,VWS V14.01,2013-02-04 13:17:00,
2013-02-04 07:18:00,30.6,23.0,29.73,SSE,161,10.0,20.0,73,0.00,,---,0.00,VWS V14.01,2013-02-04 13:18:00,
2013-02-04 07:20:00,30.6,23.0,29.73,South,173,10.0,20.0,73,0.00,,---,0.00,VWS V14.01,2013-02-04 13:20:00,
2013-02-04 07:22:00,30.6,23.0,29.73,SSE,166,7.0,20.0,73,0.00,,---,0.00,VWS V14.01,2013-02-04 13:22:00,
2013-02-04 07:24:00,30.6,23.0,29.73,South,190,10.0,20.0,73,0.00,,---,0.00,VWS V14.01,2013-02-04 13:24:00,
2013-02-04 07:25:00,30.6,23.3,29.73,South,175,12.0,20.0,74,0.00,,---,0.00,VWS V14.01,2013-02-04 13:25:00,
2013-02-04 07:27:00,30.6,23.0,29.73,SSE,155,7.0,20.0,73,0.00,,---,0.00,VWS V14.01,2013-02-04 13:27:00,
2013-02-04 07:29:00,30.6,23.0,29.73,South,190,10.0,20.0,73,0.00,,---,0.00,VWS V14.01,2013-02-04 13:29:00,
2013-02-04 07:30:00,30.7,23.1,29.73,South,178,10.0,13.0,73,0.00,,---,0.00,VWS V14.01,2013-02-04 13:30:00,
2013-02-04 07:32:00,30.7,23.1,29.73,South,176,13.0,13.0,73,0.00,,---,0.00,VWS V14.01,2013-02-04 13:32:00,
2013-02-04 07:34:00,30.8,23.2,29.73,South,180,10.0,14.0,73,0.00,,---,0.00,VWS V14.01,2013-02-04 13:34:00,
2013-02-04 07:35:00,30.8,23.2,29.73,South,171,9.0,14.0,73,0.00,,---,0.00,VWS V14.01,2013-02-04 13:35:00,
2013-02-04 07:36:00,30.8,23.2,29.73,South,184,12.0,14.0,73,0.00,,---,0.00,VWS V14.01,2013-02-04 13:36:00,
2013-02-04 07:37:00,30.8,23.2,29.73,South,174,7.0,14.0,73,0.00,,---,0.00,VWS V14.01,2013-02-04 13:37:00,
2013-02-04 07:39:00,30.7,23.1,29.73,South,184,7.0,14.0,73,0.00,,---,0.00,VWS V14.01,2013-02-04 13:39:00,
2013-02-04 07:40:00,30.7,23.1,29.73,South,175,10.0,14.0,73,0.00,,---,0.00,VWS V14.01,2013-02-04 13:40:00,
2013-02-04 07:41:00,30.7,23.1,29.73,South,185,11.0,14.0,73,0.00,,---,0.00,VWS V14.01,2013-02-04 13:41:00,
2013-02-04 07:42:00,30.7,23.1,29.73,South,181,12.0,14.0,73,0.00,,---,0.00,VWS V14.01,2013-02-04 13:42:00,
2013-02-04 07:44:00,30.7,23.1,29.73,South,178,12.0,14.0,73,0.00,,---,0.00,VWS V14.01,2013-02-04 13:44:00,
2013-02-04 07:45:00,30.8,23.2,29.73,South,191,11.0,14.0,73,0.00,,---,0.00,VWS V14.01,2013-02-04 13:45:00,
2013-02-04 07:46:00,30.8,23.2,29.73,South,171,5.0,14.0,73,0.00,,---,0.00,VWS V14.01,2013-02-04 13:46:00,
2013-02-04 07:47:00,30.8,23.2,29.73,South,174,12.0,14.0,73,0.00,,---,0.00,VWS V14.01,2013-02-04 13:47:00,
2013-02-04 07:49:00,30.8,23.2,29.73,South,178,11.0,14.0,73,0.00,,---,0.00,VWS V14.01,2013-02-04 13:49:00,
2013-02-04 07:51:00,30.8,23.2,29.73,South,179,10.0,14.0,73,0.00,,---,0.00,VWS V14.01,2013-02-04 13:51:00,
2013-02-04 07:52:00,30.8,23.2,29.73,South,175,12.0,15.0,73,0.00,,---,0.00,VWS V14.01,2013-02-04 13:52:00,
2013-02-04 07:54:00,30.8,23.2,29.73,South,185,12.0,15.0,73,0.00,,---,0.00,VWS V14.01,2013-02-04 13:54:00,
2013-02-04 07:56:00,30.8,23.2,29.73,SSE,167,9.0,15.0,73,0.00,,---,0.00,VWS V14.01,2013-02-04 13:56:00,
2013-02-04 07:57:00,30.9,23.3,29.73,South,180,10.0,15.0,73,0.00,,---,0.00,VWS V14.01,2013-02-04 13:57:00,
2013-02-04 07:59:00,30.9,23.6,29.73,South,182,9.0,15.0,74,0.00,,---,0.00,VWS V14.01,2013-02-04 13:59:00,
2013-02-04 08:01:00,31.0,23.7,29.73,SSW,194,13.0,13.0,74,0.00,,---,0.00,VWS V14.01,2013-02-04 14:01:00,
2013-02-04 08:02:00,31.1,23.8,29.73,South,180,10.0,13.0,74,0.00,,---,0.00,VWS V14.01,2013-02-04 14:02:00,
2013-02-04 08:04:00,31.1,23.8,29.73,SSW,197,11.0,15.0,74,0.00,,---,0.00,VWS V14.01,2013-02-04 14:04:00,
2013-02-04 08:06:00,31.3,24.0,29.73,South,190,9.0,15.0,74,0.00,,---,0.00,VWS V14.01,2013-02-04 14:06:00,
2013-02-04 08:07:00,31.3,23.7,29.73,SSE,158,7.0,15.0,73,0.00,,---,0.00,VWS V14.01,2013-02-04 14:07:00,
2013-02-04 08:09:00,31.4,23.8,29.73,South,185,7.0,15.0,73,0.00,,---,0.00,VWS V14.01,2013-02-04 14:09:00,
2013-02-04 08:11:00,31.5,23.9,29.73,South,186,7.0,15.0,73,0.00,,---,0.00,VWS V14.01,2013-02-04 14:11:00,
2013-02-04 08:12:00,31.6,24.0,29.73,South,184,12.0,15.0,73,0.00,,---,0.00,VWS V14.01,2013-02-04 14:12:00,
2013-02-04 08:14:00,31.7,24.0,29.73,SSW,202,12.0,15.0,73,0.00,,---,0.00,VWS V14.01,2013-02-04 14:14:00,
2013-02-04 08:16:00,31.8,24.1,29.73,South,178,8.0,15.0,73,0.00,,---,0.00,VWS V14.01,2013-02-04 14:16:00,
2013-02-04 08:17:00,31.9,24.2,29.73,South,185,10.0,15.0,73,0.00,,---,0.00,VWS V14.01,2013-02-04 14:17:00,
2013-02-04 08:19:00,31.9,24.2,29.73,South,190,9.0,15.0,73,0.00,,---,0.00,VWS V14.01,2013-02-04 14:19:00,
2013-02-04 08:21:00,32.0,24.3,29.73,SSW,209,5.0,15.0,73,0.00,,---,0.00,VWS V14.01,2013-02-04 14:21:00,
2013-02-04 08:22:00,32.0,24.3,29.73,SSW,193,10.0,15.0,73,0.00,,---,0.00,VWS V14.01,2013-02-04 14:22:00,
2013-02-04 08:24:00,32.1,24.1,29.73,South,177,5.0,15.0,72,0.00,,---,0.00,VWS V14.01,2013-02-04 14:24:00,
2013-02-04 08:26:00,32.3,24.3,29.73,SSW,194,9.0,15.0,72,0.00,,---,0.00,VWS V14.01,2013-02-04 14:26:00,
2013-02-04 08:27:00,32.3,24.3,29.73,South,169,6.0,15.0,72,0.00,,---,0.00,VWS V14.01,2013-02-04 14:27:00,
2013-02-04 08:28:00,32.3,24.3,29.73,SSW,204,14.0,15.0,72,0.00,,---,0.00,VWS V14.01,2013-02-04 14:28:00,
2013-02-04 08:29:00,32.4,24.4,29.73,South,184,10.0,15.0,72,0.00,,---,0.00,VWS V14.01,2013-02-04 14:29:00,
2013-02-04 08:31:00,32.5,24.5,29.73,SSW,204,6.0,12.0,72,0.00,,---,0.00,VWS V14.01,2013-02-04 14:31:00,
2013-02-04 08:32:00,32.5,24.5,29.73,SSW,202,7.0,12.0,72,0.00,,---,0.00,VWS V14.01,2013-02-04 14:32:00,
2013-02-04 08:33:00,32.5,24.5,29.73,SSW,194,9.0,12.0,72,0.00,,---,0.00,VWS V14.01,2013-02-04 14:33:00,
2013-02-04 08:34:00,32.5,24.5,29.73,SSW,193,10.0,14.0,72,0.00,,---,0.00,VWS V14.01,2013-02-04 14:34:00,
2013-02-04 08:37:00,32.7,24.7,29.73,South,191,5.0,14.0,72,0.00,,---,0.00,VWS V14.01,2013-02-04 14:37:00,
2013-02-04 08:38:00,32.9,24.9,29.73,South,188,6.0,16.0,72,0.00,,---,0.00,VWS V14.01,2013-02-04 14:38:00,
2013-02-04 08:40:00,33.1,24.7,29.74,South,184,9.0,16.0,71,0.00,,---,0.00,VWS V14.01,2013-02-04 14:40:00,
2013-02-04 08:42:00,33.4,25.0,29.74,South,174,5.0,16.0,71,0.00,,---,0.00,VWS V14.01,2013-02-04 14:42:00,
2013-02-04 08:43:00,33.5,25.1,29.74,SSW,194,4.0,16.0,71,0.00,,---,0.00,VWS V14.01,2013-02-04 14:43:00,
2013-02-04 08:45:00,33.9,25.8,29.73,SSW,194,7.0,16.0,72,0.00,,---,0.00,VWS V14.01,2013-02-04 14:45:00,
2013-02-04 08:47:00,34.4,25.6,29.74,SSW,196,9.0,16.0,70,0.00,,---,0.00,VWS V14.01,2013-02-04 14:47:00,
2013-02-04 08:48:00,34.4,25.6,29.74,SSW,198,1.0,16.0,70,0.00,,---,0.00,VWS V14.01,2013-02-04 14:48:00,
2013-02-04 08:50:00,34.5,25.7,29.74,WSW,238,7.0,16.0,70,0.00,,---,0.00,VWS V14.01,2013-02-04 14:50:00,
2013-02-04 08:52:00,34.8,25.7,29.74,SSW,213,4.0,16.0,69,0.00,,---,0.00,VWS V14.01,2013-02-04 14:52:00,
2013-02-04 08:53:00,34.9,25.8,29.74,SSW,207,5.0,16.0,69,0.00,,---,0.00,VWS V14.01,2013-02-04 14:53:00,
2013-02-04 08:55:00,35.0,25.9,29.74,SSW,205,11.0,16.0,69,0.00,,---,0.00,VWS V14.01,2013-02-04 14:55:00,
2013-02-04 08:57:00,35.0,25.9,29.74,SSW,212,1.0,16.0,69,0.00,,---,0.00,VWS V14.01,2013-02-04 14:57:00,
2013-02-04 08:58:00,35.1,26.0,29.74,SW,223,9.0,16.0,69,0.00,,---,0.00,VWS V14.01,2013-02-04 14:58:00,
2013-02-04 09:00:00,35.0,25.9,29.74,South,188,11.0,16.0,69,0.00,,---,0.00,VWS V14.01,2013-02-04 15:00:00,
2013-02-04 09:02:00,34.9,25.8,29.74,SSW,211,5.0,12.0,69,0.00,,---,0.00,VWS V14.01,2013-02-04 15:02:00,
2013-02-04 09:04:00,34.8,25.7,29.74,WSW,238,6.0,12.0,69,0.00,,---,0.00,VWS V14.01,2013-02-04 15:04:00,
2013-02-04 09:05:00,34.8,25.7,29.74,SSW,192,7.0,12.0,69,0.00,,---,0.00,VWS V14.01,2013-02-04 15:05:00,
2013-02-04 09:07:00,34.8,25.7,29.74,SSW,196,9.0,12.0,69,0.00,,---,0.00,VWS V14.01,2013-02-04 15:07:00,
2013-02-04 09:09:00,34.8,25.7,29.74,SSW,194,2.0,12.0,69,0.00,,---,0.00,VWS V14.01,2013-02-04 15:09:00,
2013-02-04 09:10:00,34.9,25.8,29.74,SSW,196,5.0,12.0,69,0.00,,---,0.00,VWS V14.01,2013-02-04 15:10:00,
2013-02-04 09:12:00,35.0,25.9,29.74,SSW,196,6.0,12.0,69,0.00,,---,0.00,VWS V14.01,2013-02-04 15:12:00,
2013-02-04 09:13:00,35.1,26.0,29.74,South,188,9.0,12.0,69,0.00,,---,0.00,VWS V14.01,2013-02-04 15:13:00,
2013-02-04 09:14:00,35.1,26.0,29.74,South,190,6.0,12.0,69,0.00,,---,0.00,VWS V14.01,2013-02-04 15:14:00,
2013-02-04 09:16:00,35.2,26.1,29.74,South,190,2.0,12.0,69,0.00,,---,0.00,VWS V14.01,2013-02-04 15:16:00,
2013-02-04 09:18:00,35.3,26.2,29.74,South,183,6.0,12.0,69,0.00,,---,0.00,VWS V14.01,2013-02-04 15:18:00,
2013-02-04 09:19:00,35.3,26.2,29.74,South,184,3.0,12.0,69,0.00,,---,0.00,VWS V14.01,2013-02-04 15:19:00,
2013-02-04 09:21:00,35.4,26.3,29.74,SSW,192,5.0,12.0,69,0.00,,---,0.00,VWS V14.01,2013-02-04 15:21:00,
2013-02-04 09:23:00,35.4,26.3,29.74,South,190,6.0,12.0,69,0.00,,---,0.00,VWS V14.01,2013-02-04 15:23:00,
2013-02-04 09:24:00,35.6,26.5,29.74,SSW,192,0.0,12.0,69,0.00,,---,0.00,VWS V14.01,2013-02-04 15:24:00,
2013-02-04 09:26:00,35.6,26.5,29.74,SW,215,4.0,12.0,69,0.00,,---,0.00,VWS V14.01,2013-02-04 15:26:00,
2013-02-04 09:28:00,35.8,26.6,29.74,SW,215,3.0,12.0,69,0.00,,---,0.00,VWS V14.01,2013-02-04 15:28:00,
2013-02-04 09:30:00,35.9,26.7,29.74,SSW,206,2.0,12.0,69,0.00,,---,0.00,VWS V14.01,2013-02-04 15:30:00,
2013-02-04 09:31:00,36.0,26.8,29.74,South,186,7.0,9.0,69,0.00,,---,0.00,VWS V14.01,2013-02-04 15:31:00,
2013-02-04 09:33:00,36.1,26.6,29.74,SSW,192,5.0,10.0,68,0.00,,---,0.00,VWS V14.01,2013-02-04 15:33:00,
2013-02-04 09:35:00,36.2,26.7,29.74,South,189,5.0,10.0,68,0.00,,---,0.00,VWS V14.01,2013-02-04 15:35:00,
2013-02-04 09:36:00,36.3,26.8,29.74,SSW,193,3.0,10.0,68,0.00,,---,0.00,VWS V14.01,2013-02-04 15:36:00,
2013-02-04 09:38:00,36.5,27.0,29.74,SSW,192,6.0,10.0,68,0.00,,---,0.00,VWS V14.01,2013-02-04 15:38:00,
2013-02-04 09:39:00,36.6,27.0,29.74,SSW,193,2.0,10.0,68,0.00,,---,0.00,VWS V14.01,2013-02-04 15:39:00,
2013-02-04 09:40:00,36.7,28.5,29.74,SSW,194,3.0,10.0,72,0.00,,---,0.00,VWS V14.01,2013-02-04 15:40:00,
2013-02-04 09:41:00,36.8,27.2,29.73,SSW,194,1.0,10.0,68,0.00,,---,0.00,VWS V14.01,2013-02-04 15:41:00,
2013-02-04 09:43:00,37.0,27.4,29.74,SSW,196,1.0,10.0,68,0.00,,---,0.00,VWS V14.01,2013-02-04 15:43:00,
2013-02-04 09:44:00,37.1,27.5,29.74,South,188,6.0,10.0,68,0.00,,---,0.00,VWS V14.01,2013-02-04 15:44:00,
2013-02-04 09:45:00,37.1,27.2,29.74,South,189,1.0,10.0,67,0.00,,---,0.00,VWS V14.01,2013-02-04 15:45:00,
2013-02-04 09:46:00,37.1,27.2,29.74,SSW,202,2.0,10.0,67,0.00,,---,0.00,VWS V14.01,2013-02-04 15:46:00,
2013-02-04 09:48:00,37.3,27.4,29.74,SSW,202,2.0,10.0,67,0.00,,---,0.00,VWS V14.01,2013-02-04 15:48:00,
2013-02-04 09:49:00,37.3,27.4,29.74,South,180,5.0,10.0,67,0.00,,---,0.00,VWS V14.01,2013-02-04 15:49:00,
2013-02-04 09:50:00,37.3,27.4,29.74,South,180,0.0,10.0,67,0.00,,---,0.00,VWS V14.01,2013-02-04 15:50:00,
2013-02-04 09:51:00,37.3,27.4,29.74,South,183,4.0,10.0,67,0.00,,---,0.00,VWS V14.01,2013-02-04 15:51:00,
2013-02-04 09:53:00,37.3,27.4,29.74,South,183,0.0,10.0,67,0.00,,---,0.00,VWS V14.01,2013-02-04 15:53:00,
2013-02-04 09:54:00,37.3,27.4,29.74,South,183,0.0,10.0,67,0.00,,---,0.00,VWS V14.01,2013-02-04 15:54:00,
2013-02-04 09:56:00,37.4,27.5,29.74,South,183,2.0,10.0,67,0.00,,---,0.00,VWS V14.01,2013-02-04 15:56:00,
2013-02-04 09:57:00,37.4,27.1,29.74,South,183,3.0,10.0,66,0.00,,---,0.00,VWS V14.01,2013-02-04 15:57:00,
2013-02-04 09:58:00,37.5,27.2,29.74,South,188,6.0,10.0,66,0.00,,---,0.00,VWS V14.01,2013-02-04 15:58:00,
2013-02-04 09:59:00,37.5,27.2,29.74,South,188,3.0,10.0,66,0.00,,---,0.00,VWS V14.01,2013-02-04 15:59:00,
2013-02-04 10:01:00,37.5,27.2,29.74,South,188,1.0,4.0,66,0.00,,---,0.00,VWS V14.01,2013-02-04 16:01:00,
2013-02-04 10:02:00,37.5,27.2,29.74,South,188,4.0,4.0,66,0.00,,---,0.00,VWS V14.01,2013-02-04 16:02:00,
2013-02-04 10:04:00,37.7,27.8,29.74,South,188,0.0,5.0,67,0.00,,---,0.00,VWS V14.01,2013-02-04 16:04:00,
2013-02-04 10:06:00,37.8,27.5,29.74,South,189,2.0,5.0,66,0.00,,---,0.00,VWS V14.01,2013-02-04 16:06:00,
2013-02-04 10:07:00,37.8,27.5,29.74,South,189,0.0,5.0,66,0.00,,---,0.00,VWS V14.01,2013-02-04 16:07:00,
2013-02-04 10:09:00,37.9,27.6,29.74,SW,216,5.0,5.0,66,0.00,,---,0.00,VWS V14.01,2013-02-04 16:09:00,
2013-02-04 10:11:00,38.0,27.7,29.74,SW,232,5.0,6.0,66,0.00,,---,0.00,VWS V14.01,2013-02-04 16:11:00,
2013-02-04 10:12:00,38.0,27.7,29.74,SW,232,4.0,6.0,66,0.00,,---,0.00,VWS V14.01,2013-02-04 16:12:00,
2013-02-04 10:14:00,38.0,27.3,29.74,SSW,199,3.0,7.0,65,0.00,,---,0.00,VWS V14.01,2013-02-04 16:14:00,
2013-02-04 10:15:00,38.0,27.3,29.74,SSW,199,2.0,7.0,65,0.00,,---,0.00,VWS V14.01,2013-02-04 16:15:00,
2013-02-04 10:16:00,38.0,27.3,29.74,SSW,205,3.0,7.0,65,0.00,,---,0.00,VWS V14.01,2013-02-04 16:16:00,
2013-02-04 10:17:00,38.0,27.3,29.74,SSW,205,6.0,7.0,65,0.00,,---,0.00,VWS V14.01,2013-02-04 16:17:00,
2013-02-04 10:19:00,38.0,27.3,29.74,SSW,212,6.0,7.0,65,0.00,,---,0.00,VWS V14.01,2013-02-04 16:19:00,
2013-02-04 10:20:00,38.0,27.3,29.74,SSW,212,1.0,7.0,65,0.00,,---,0.00,VWS V14.01,2013-02-04 16:20:00,
2013-02-04 10:22:00,38.1,27.4,29.74,SW,217,2.0,7.0,65,0.00,,---,0.00,VWS V14.01,2013-02-04 16:22:00,
2013-02-04 10:24:00,38.1,27.4,29.74,SW,229,3.0,7.0,65,0.00,,---,0.00,VWS V14.01,2013-02-04 16:24:00,
2013-02-04 10:25:00,38.1,27.4,29.74,SW,229,4.0,7.0,65,0.00,,---,0.00,VWS V14.01,2013-02-04 16:25:00,
2013-02-04 10:27:00,38.2,27.5,29.74,WSW,237,5.0,7.0,65,0.00,,---,0.00,VWS V14.01,2013-02-04 16:27:00,
2013-02-04 10:30:00,38.2,27.5,29.74,WSW,242,4.0,7.0,65,0.00,,---,0.00,VWS V14.01,2013-02-04 16:30:00,
2013-02-04 10:32:00,38.3,27.6,29.74,WSW,242,4.0,7.0,65,0.00,,---,0.00,VWS V14.01,2013-02-04 16:32:00,
2013-02-04 10:35:00,38.5,27.8,29.74,WSW,238,4.0,9.0,65,0.00,,---,0.00,VWS V14.01,2013-02-04 16:35:00,
2013-02-04 10:37:00,38.7,28.0,29.74,WSW,240,6.0,9.0,65,0.00,,---,0.00,VWS V14.01,2013-02-04 16:37:00,
2013-02-04 10:40:00,38.8,28.1,29.74,WSW,248,3.0,9.0,65,0.00,,---,0.00,VWS V14.01,2013-02-04 16:40:00,
2013-02-04 10:42:00,39.0,27.9,29.74,West,260,4.0,9.0,64,0.00,,---,0.00,VWS V14.01,2013-02-04 16:42:00,
2013-02-04 10:45:00,39.3,28.5,29.74,WSW,248,5.0,9.0,65,0.00,,---,0.00,VWS V14.01,2013-02-04 16:45:00,
2013-02-04 10:47:00,39.5,28.4,29.74,WSW,248,5.0,9.0,64,0.00,,---,0.00,VWS V14.01,2013-02-04 16:47:00,
2013-02-04 10:50:00,39.7,28.1,29.74,West,259,7.0,9.0,63,0.00,,---,0.00,VWS V14.01,2013-02-04 16:50:00,
2013-02-04 10:52:00,39.8,27.9,29.74,WSW,245,6.0,9.0,62,0.00,,---,0.00,VWS V14.01,2013-02-04 16:52:00,
2013-02-04 10:55:00,40.0,28.0,29.74,West,259,9.0,10.0,62,0.00,,---,0.00,VWS V14.01,2013-02-04 16:55:00,
2013-02-04 10:57:00,40.2,28.2,29.74,West,267,6.0,10.0,62,0.00,,---,0.00,VWS V14.01,2013-02-04 16:57:00,
2013-02-04 10:58:00,40.2,28.2,29.74,West,267,6.0,10.0,62,0.00,,---,0.00,VWS V14.01,2013-02-04 16:58:00,
2013-02-04 11:00:00,40.5,28.1,29.75,WSW,255,9.0,11.0,61,0.00,,---,0.00,VWS V14.01,2013-02-04 17:00:00,
2013-02-04 11:03:00,41.1,28.7,29.75,West,273,9.0,10.0,61,0.00,,---,0.00,VWS V14.01,2013-02-04 17:03:00,
2013-02-04 11:05:00,41.2,28.0,29.74,West,260,9.0,11.0,59,0.00,,---,0.00,VWS V14.01,2013-02-04 17:05:00,
2013-02-04 11:08:00,41.4,28.6,29.74,West,271,6.0,11.0,60,0.00,,---,0.00,VWS V14.01,2013-02-04 17:08:00,
2013-02-04 11:10:00,41.4,28.2,29.74,West,272,8.0,11.0,59,0.00,,---,0.00,VWS V14.01,2013-02-04 17:10:00,
2013-02-04 11:13:00,41.4,28.2,29.74,West,263,6.0,11.0,59,0.00,,---,0.00,VWS V14.01,2013-02-04 17:13:00,
2013-02-04 11:15:00,41.5,27.8,29.74,West,281,6.0,11.0,58,0.00,,---,0.00,VWS V14.01,2013-02-04 17:15:00,
2013-02-04 11:16:00,41.5,27.8,29.74,West,281,6.0,11.0,58,0.00,,---,0.00,VWS V14.01,2013-02-04 17:16:00,
2013-02-04 11:18:00,41.6,27.9,29.74,WNW,290,6.0,12.0,58,0.00,,---,0.00,VWS V14.01,2013-02-04 17:18:00,
2013-02-04 11:21:00,41.5,27.0,29.74,NW,324,2.0,12.0,56,0.00,,---,0.00,VWS V14.01,2013-02-04 17:21:00,
2013-02-04 11:23:00,41.3,27.2,29.74,WNW,302,9.0,12.0,57,0.00,,---,0.00,VWS V14.01,2013-02-04 17:23:00,
2013-02-04 11:26:00,41.0,27.0,29.74,NW,320,2.0,12.0,57,0.00,,---,0.00,VWS V14.01,2013-02-04 17:26:00,
2013-02-04 11:28:00,40.6,27.0,29.74,NNW,331,4.0,12.0,58,0.00,,---,0.00,VWS V14.01,2013-02-04 17:28:00,
2013-02-04 11:29:00,40.5,26.9,29.74,NNW,329,4.0,12.0,58,0.00,,---,0.00,VWS V14.01,2013-02-04 17:29:00,
2013-02-04 11:31:00,40.4,26.8,29.74,NW,319,2.0,4.0,58,0.00,,---,0.00,VWS V14.01,2013-02-04 17:31:00,
2013-02-04 11:33:00,40.3,27.1,29.74,WNW,301,7.0,7.0,59,0.00,,---,0.00,VWS V14.01,2013-02-04 17:33:00,
2013-02-04 11:34:00,40.3,27.5,29.74,NW,317,4.0,9.0,60,0.00,,---,0.00,VWS V14.01,2013-02-04 17:34:00,
2013-02-04 11:36:00,40.5,27.3,29.74,NW,308,3.0,9.0,59,0.00,,---,0.00,VWS V14.01,2013-02-04 17:36:00,
2013-02-04 11:38:00,40.6,27.0,29.74,WNW,290,2.0,9.0,58,0.00,,---,0.00,VWS V14.01,2013-02-04 17:38:00,
2013-02-04 11:39:00,40.7,27.5,29.74,NNW,336,5.0,9.0,59,0.00,,---,0.00,VWS V14.01,2013-02-04 17:39:00,
2013-02-04 11:41:00,40.7,27.1,29.74,WNW,296,6.0,9.0,58,0.00,,---,0.00,VWS V14.01,2013-02-04 17:41:00,
2013-02-04 11:44:00,40.7,27.1,29.74,WNW,300,6.0,10.0,58,0.00,,---,0.00,VWS V14.01,2013-02-04 17:44:00,
2013-02-04 11:46:00,40.6,27.0,29.74,NNW,329,3.0,10.0,58,0.00,,---,0.00,VWS V14.01,2013-02-04 17:46:00,
2013-02-04 11:49:00,40.8,27.2,29.74,NW,318,3.0,10.0,58,0.00,,---,0.00,VWS V14.01,2013-02-04 17:49:00,
2013-02-04 11:51:00,40.8,27.2,29.74,NW,322,5.0,10.0,58,0.00,,---,0.00,VWS V14.01,2013-02-04 17:51:00,
2013-02-04 11:54:00,40.9,27.3,29.74,NNW,331,0.0,10.0,58,0.00,,---,0.00,VWS V14.01,2013-02-04 17:54:00,
2013-02-04 11:56:00,41.2,28.0,29.74,NW,304,4.0,10.0,59,0.00,,---,0.00,VWS V14.01,2013-02-04 17:56:00,
2013-02-04 11:59:00,41.4,27.8,29.74,NNW,335,2.0,10.0,58,0.00,,---,0.00,VWS V14.01,2013-02-04 17:59:00,
2013-02-04 12:01:00,41.6,27.9,29.74,NW,311,1.0,5.0,58,0.00,,---,0.00,VWS V14.01,2013-02-04 18:01:00,
2013-02-04 12:04:00,41.6,27.9,29.74,NNW,333,3.0,10.0,58,0.00,,---,0.00,VWS V14.01,2013-02-04 18:04:00,
2013-02-04 12:06:00,41.4,27.8,29.74,NW,304,2.0,10.0,58,0.00,,---,0.00,VWS V14.01,2013-02-04 18:06:00,
2013-02-04 12:09:00,41.5,27.8,29.74,NNW,332,3.0,10.0,58,0.00,,---,0.00,VWS V14.01,2013-02-04 18:09:00,
2013-02-04 12:11:00,41.5,27.4,29.74,NW,323,4.0,10.0,57,0.00,,---,0.00,VWS V14.01,2013-02-04 18:11:00,
2013-02-04 12:12:00,41.4,27.3,29.74,NW,320,7.0,10.0,57,0.00,,---,0.00,VWS V14.01,2013-02-04 18:12:00,
2013-02-04 12:14:00,41.1,27.5,29.74,North,355,5.0,10.0,58,0.00,,---,0.00,VWS V14.01,2013-02-04 18:14:00,
2013-02-04 12:15:00,41.1,27.5,29.74,North,351,4.0,10.0,58,0.00,,---,0.00,VWS V14.01,2013-02-04 18:15:00,
2013-02-04 12:16:00,41.1,27.5,29.74,WNW,294,6.0,10.0,58,0.00,,---,0.00,VWS V14.01,2013-02-04 18:16:00,
2013-02-04 12:17:00,41.1,27.5,29.74,NW,325,3.0,10.0,58,0.00,,---,0.00,VWS V14.01,2013-02-04 18:17:00,
2013-02-04 12:19:00,41.1,27.9,29.74,NW,321,3.0,10.0,59,0.00,,---,0.00,VWS V14.01,2013-02-04 18:19:00,
2013-02-04 12:20:00,41.1,27.9,29.74,NW,321,3.0,10.0,59,0.00,,---,0.00,VWS V14.01,2013-02-04 18:20:00,
2013-02-04 12:22:00,41.2,28.0,29.74,North,5,2.0,10.0,59,0.00,,---,0.00,VWS V14.01,2013-02-04 18:22:00,
2013-02-04 12:25:00,41.6,28.4,29.74,NNW,332,2.0,10.0,59,0.00,,---,0.00,VWS V14.01,2013-02-04 18:25:00,
2013-02-04 12:27:00,41.7,28.0,29.74,NNW,334,3.0,10.0,58,0.00,,---,0.00,VWS V14.01,2013-02-04 18:27:00,
2013-02-04 12:30:00,41.7,28.0,29.74,North,350,3.0,10.0,58,0.00,,---,0.00,VWS V14.01,2013-02-04 18:30:00,
2013-02-04 12:32:00,41.8,28.1,29.74,North,355,6.0,6.0,58,0.00,,---,0.00,VWS V14.01,2013-02-04 18:32:00,
2013-02-04 12:33:00,41.8,27.7,29.74,North,349,2.0,11.0,57,0.00,,---,0.00,VWS V14.01,2013-02-04 18:33:00,
2013-02-04 12:35:00,41.8,28.1,29.74,NNW,338,2.0,11.0,58,0.00,,---,0.00,VWS V14.01,2013-02-04 18:35:00,
2013-02-04 12:37:00,41.8,28.5,29.74,NNW,332,3.0,11.0,59,0.00,,---,0.00,VWS V14.01,2013-02-04 18:37:00,
2013-02-04 12:38:00,41.9,28.6,29.74,NNW,342,4.0,11.0,59,0.00,,---,0.00,VWS V14.01,2013-02-04 18:38:00,
2013-02-04 12:40:00,42.1,28.4,29.75,NW,314,4.0,11.0,58,0.00,,---,0.00,VWS V14.01,2013-02-04 18:40:00,
2013-02-04 12:42:00,42.1,28.4,29.75,WNW,303,3.0,11.0,58,0.00,,---,0.00,VWS V14.01,2013-02-04 18:42:00,
2013-02-04 12:43:00,42.1,28.4,29.75,NW,309,4.0,11.0,58,0.00,,---,0.00,VWS V14.01,2013-02-04 18:43:00,
2013-02-04 12:45:00,42.0,27.9,29.75,NW,308,5.0,11.0,57,0.00,,---,0.00,VWS V14.01,2013-02-04 18:45:00,
2013-02-04 12:47:00,41.9,28.6,29.75,NW,323,5.0,11.0,59,0.00,,---,0.00,VWS V14.01,2013-02-04 18:47:00,
2013-02-04 12:48:00,41.9,28.6,29.75,NW,306,3.0,11.0,59,0.00,,---,0.00,VWS V14.01,2013-02-04 18:48:00,
2013-02-04 12:50:00,42.0,28.7,29.75,North,355,2.0,11.0,59,0.00,,---,0.00,VWS V14.01,2013-02-04 18:50:00,
2013-02-04 12:51:00,42.0,28.7,29.75,North,355,2.0,11.0,59,0.00,,---,0.00,VWS V14.01,2013-02-04 18:51:00,
2013-02-04 12:52:00,42.1,28.8,29.75,NW,325,5.0,11.0,59,0.00,,---,0.00,VWS V14.01,2013-02-04 18:52:00,
2013-02-04 12:54:00,42.2,28.9,29.75,NW,316,2.0,11.0,59,0.00,,---,0.00,VWS V14.01,2013-02-04 18:54:00,
2013-02-04 12:56:00,42.3,28.6,29.75,North,9,5.0,11.0,58,0.00,,---,0.00,VWS V14.01,2013-02-04 18:56:00,
2013-02-04 12:57:00,42.2,28.5,29.75,NNW,348,3.0,11.0,58,0.00,,---,0.00,VWS V14.01,2013-02-04 18:57:00,
2013-02-04 12:59:00,42.1,28.0,29.75,NNW,335,4.0,11.0,57,0.00,,---,0.00,VWS V14.01,2013-02-04 18:59:00,
2013-02-04 13:01:00,42.2,28.9,29.75,NNW,343,5.0,5.0,59,0.00,,---,0.00,VWS V14.01,2013-02-04 19:01:00,
2013-02-04 13:02:00,42.3,28.6,29.75,North,355,3.0,6.0,58,0.00,,---,0.00,VWS V14.01,2013-02-04 19:02:00,
2013-02-04 13:04:00,42.4,28.7,29.75,NNW,329,5.0,6.0,58,0.00,,---,0.00,VWS V14.01,2013-02-04 19:04:00,
2013-02-04 13:06:00,42.4,28.7,29.75,NNW,329,3.0,6.0,58,0.00,,---,0.00,VWS V14.01,2013-02-04 19:06:00,
2013-02-04 13:08:00,42.3,28.6,29.75,NW,325,4.0,7.0,58,0.00,,---,0.00,VWS V14.01,2013-02-04 19:08:00,
2013-02-04 13:10:00,42.3,28.6,29.75,NW,318,9.0,9.0,58,0.00,,---,0.00,VWS V14.01,2013-02-04 19:10:00,
2013-02-04 13:11:00,42.4,28.7,29.75,NNW,336,5.0,10.0,58,0.00,,---,0.00,VWS V14.01,2013-02-04 19:11:00,
2013-02-04 13:13:00,42.3,28.2,29.75,NNE,15,2.0,10.0,57,0.00,,---,0.00,VWS V14.01,2013-02-04 19:13:00,
2013-02-04 13:15:00,42.3,28.6,29.75,NNW,328,6.0,10.0,58,0.00,,---,0.00,VWS V14.01,2013-02-04 19:15:00,
2013-02-04 13:16:00,42.4,28.7,29.75,NNW,347,2.0,10.0,58,0.00,,---,0.00,VWS V14.01,2013-02-04 19:16:00,
2013-02-04 13:18:00,42.4,28.3,29.75,NW,321,6.0,10.0,57,0.00,,---,0.00,VWS V14.01,2013-02-04 19:18:00,
2013-02-04 13:20:00,42.3,28.6,29.75,NNW,332,3.0,10.0,58,0.00,,---,0.00,VWS V14.01,2013-02-04 19:20:00,
2013-02-04 13:21:00,42.2,28.1,29.75,NNW,342,1.0,10.0,57,0.00,,---,0.00,VWS V14.01,2013-02-04 19:21:00,
2013-02-04 13:24:00,42.2,28.5,29.75,NNW,338,3.0,10.0,58,0.00,,---,0.00,VWS V14.01,2013-02-04 19:24:00,
2013-02-04 13:25:00,42.3,28.6,29.75,NW,307,6.0,10.0,58,0.00,,---,0.00,VWS V14.01,2013-02-04 19:25:00,
2013-02-04 13:26:00,42.2,28.5,29.76,WNW,302,5.0,10.0,58,0.00,,---,0.00,VWS V14.01,2013-02-04 19:26:00,
2013-02-04 13:27:00,42.2,28.5,29.76,NW,315,6.0,10.0,58,0.00,,---,0.00,VWS V14.01,2013-02-04 19:27:00,
2013-02-04 13:29:00,42.0,28.3,29.76,NNW,329,4.0,10.0,58,0.00,,---,0.00,VWS V14.01,2013-02-04 19:29:00,
2013-02-04 13:30:00,42.0,28.3,29.76,NNW,331,5.0,10.0,58,0.00,,---,0.00,VWS V14.01,2013-02-04 19:30:00,
2013-02-04 13:31:00,42.0,28.3,29.76,NW,306,5.0,10.0,58,0.00,,---,0.00,VWS V14.01,2013-02-04 19:31:00,
2013-02-04 13:32:00,41.9,28.2,29.76,WNW,298,5.0,10.0,58,0.00,,---,0.00,VWS V14.01,2013-02-04 19:32:00,
2013-02-04 13:34:00,41.8,28.1,29.76,NW,325,4.0,10.0,58,0.00,,---,0.00,VWS V14.01,2013-02-04 19:34:00,
2013-02-04 13:35:00,41.8,28.5,29.77,NW,312,5.0,10.0,59,0.00,,---,0.00,VWS V14.01,2013-02-04 19:35:00,
2013-02-04 13:37:00,41.7,28.4,29.77,North,5,4.0,11.0,59,0.00,,---,0.00,VWS V14.01,2013-02-04 19:37:00,
2013-02-04 13:39:00,41.8,28.5,29.77,North,11,5.0,11.0,59,0.00,,---,0.00,VWS V14.01,2013-02-04 19:39:00,
2013-02-04 13:40:00,41.9,28.6,29.77,NNW,341,10.0,11.0,59,0.00,,---,0.00,VWS V14.01,2013-02-04 19:40:00,
2013-02-04 13:42:00,42.0,28.7,29.77,NW,325,5.0,11.0,59,0.00,,---,0.00,VWS V14.01,2013-02-04 19:42:00,
2013-02-04 13:44:00,42.0,28.3,29.77,NNW,340,8.0,11.0,58,0.00,,---,0.00,VWS V14.01,2013-02-04 19:44:00,
2013-02-04 13:45:00,41.9,28.2,29.77,North,355,7.0,11.0,58,0.00,,---,0.00,VWS V14.01,2013-02-04 19:45:00,
2013-02-04 13:47:00,41.9,28.6,29.77,NW,305,9.0,15.0,59,0.00,,---,0.00,VWS V14.01,2013-02-04 19:47:00,
2013-02-04 13:49:00,41.6,27.9,29.77,NNE,18,9.0,15.0,58,0.00,,---,0.00,VWS V14.01,2013-02-04 19:49:00,
2013-02-04 13:50:00,41.7,28.4,29.77,WNW,302,4.0,15.0,59,0.00,,---,0.00,VWS V14.01,2013-02-04 19:50:00,
2013-02-04 13:52:00,41.8,28.5,29.77,NW,326,7.0,15.0,59,0.00,,---,0.00,VWS V14.01,2013-02-04 19:52:00,
2013-02-04 13:53:00,41.8,28.5,29.77,NNE,31,7.0,15.0,59,0.00,,---,0.00,VWS V14.01,2013-02-04 19:53:00,
2013-02-04 13:54:00,41.7,28.0,29.77,NW,317,6.0,15.0,58,0.00,,---,0.00,VWS V14.01,2013-02-04 19:54:00,
2013-02-04 13:55:00,41.6,27.9,29.77,NW,316,7.0,15.0,58,0.00,,---,0.00,VWS V14.01,2013-02-04 19:55:00,
2013-02-04 13:57:00,41.4,28.2,29.77,North,360,6.0,15.0,59,0.00,,---,0.00,VWS V14.01,2013-02-04 19:57:00,
2013-02-04 13:58:00,41.4,28.2,29.77,NNW,342,6.0,15.0,59,0.00,,---,0.00,VWS V14.01,2013-02-04 19:58:00,
2013-02-04 13:59:00,41.3,28.1,29.77,North,5,3.0,15.0,59,0.00,,---,0.00,VWS V14.01,2013-02-04 19:59:00,
2013-02-04 14:00:00,41.4,28.6,29.77,NNW,330,6.0,6.0,60,0.00,,---,0.00,VWS V14.01,2013-02-04 20:00:00,
2013-02-04 14:02:00,41.4,28.2,29.77,NW,305,6.0,11.0,59,0.00,,---,0.00,VWS V14.01,2013-02-04 20:02:00,
2013-02-04 14:03:00,41.4,28.2,29.77,NW,320,5.0,11.0,59,0.00,,---,0.00,VWS V14.01,2013-02-04 20:03:00,
2013-02-04 14:04:00,41.4,28.6,29.77,NW,315,6.0,11.0,60,0.00,,---,0.00,VWS V14.01,2013-02-04 20:04:00,
2013-02-04 14:05:00,41.2,27.6,29.77,North,355,3.0,11.0,58,0.00,,---,0.00,VWS V14.01,2013-02-04 20:05:00,
2013-02-04 14:08:00,41.1,27.9,29.77,North,350,5.0,13.0,59,0.00,,---,0.00,VWS V14.01,2013-02-04 20:08:00,
2013-02-04 14:09:00,41.1,27.9,29.77,NW,318,8.0,13.0,59,0.00,,---,0.00,VWS V14.01,2013-02-04 20:09:00,
2013-02-04 14:10:00,41.1,27.9,29.77,NNW,329,5.0,13.0,59,0.00,,---,0.00,VWS V14.01,2013-02-04 20:10:00,
2013-02-04 14:13:00,41.1,27.9,29.77,NNW,331,5.0,13.0,59,0.00,,---,0.00,VWS V14.01,2013-02-04 20:13:00,
2013-02-04 14:14:00,41.2,28.4,29.77,NNW,333,4.0,13.0,60,0.00,,---,0.00,VWS V14.01,2013-02-04 20:14:00,
2013-02-04 14:15:00,41.2,28.0,29.77,North,355,4.0,13.0,59,0.00,,---,0.00,VWS V14.01,2013-02-04 20:15:00,
2013-02-04 14:18:00,41.2,28.0,29.77,NNE,15,10.0,15.0,59,0.00,,---,0.00,VWS V14.01,2013-02-04 20:18:00,
2013-02-04 14:19:00,41.0,27.8,29.77,North,360,6.0,15.0,59,0.00,,---,0.00,VWS V14.01,2013-02-04 20:19:00,
2013-02-04 14:20:00,41.0,27.8,29.77,North,5,9.0,15.0,59,0.00,,---,0.00,VWS V14.01,2013-02-04 20:20:00,
2013-02-04 14:23:00,41.0,28.2,29.77,North,5,7.0,15.0,60,0.00,,---,0.00,VWS V14.01,2013-02-04 20:23:00,
2013-02-04 14:25:00,41.1,28.3,29.77,NNW,327,4.0,15.0,60,0.00,,---,0.00,VWS V14.01,2013-02-04 20:25:00,
2013-02-04 14:28:00,41.3,28.5,29.78,North,5,3.0,15.0,60,0.00,,---,0.00,VWS V14.01,2013-02-04 20:28:00,
2013-02-04 14:30:00,41.3,28.1,29.78,NNE,29,3.0,15.0,59,0.00,,---,0.00,VWS V14.01,2013-02-04 20:30:00,
2013-02-04 14:33:00,41.2,28.0,29.78,North,351,6.0,11.0,59,0.00,,---,0.00,VWS V14.01,2013-02-04 20:33:00,
2013-02-04 14:35:00,41.1,27.9,29.78,NNE,28,12.0,12.0,59,0.00,,---,0.00,VWS V14.01,2013-02-04 20:35:00,
2013-02-04 14:36:00,41.0,27.8,29.78,NNE,19,4.0,12.0,59,0.00,,---,0.00,VWS V14.01,2013-02-04 20:36:00,
2013-02-04 14:38:00,40.9,28.1,29.78,NNE,24,6.0,12.0,60,0.00,,---,0.00,VWS V14.01,2013-02-04 20:38:00,
2013-02-04 14:40:00,40.8,27.6,29.78,North,355,6.0,12.0,59,0.00,,---,0.00,VWS V14.01,2013-02-04 20:40:00,
2013-02-04 14:41:00,40.6,27.4,29.78,North,5,5.0,12.0,59,0.00,,---,0.00,VWS V14.01,2013-02-04 20:41:00,
2013-02-04 14:43:00,40.2,27.4,29.78,NNE,28,10.0,12.0,60,0.00,,---,0.00,VWS V14.01,2013-02-04 20:43:00,
2013-02-04 14:45:00,40.0,27.6,29.78,NE,36,4.0,12.0,61,0.00,,---,0.00,VWS V14.01,2013-02-04 20:45:00,
2013-02-04 14:46:00,40.0,27.6,29.78,North,5,6.0,12.0,61,0.00,,---,0.00,VWS V14.01,2013-02-04 20:46:00,
2013-02-04 14:48:00,39.7,27.0,29.78,NNE,16,5.0,12.0,60,0.00,,---,0.00,VWS V14.01,2013-02-04 20:48:00,
2013-02-04 14:50:00,39.5,27.2,29.78,NNE,23,6.0,12.0,61,0.00,,---,0.00,VWS V14.01,2013-02-04 20:50:00,
2013-02-04 14:51:00,39.5,27.6,29.78,NNE,21,6.0,12.0,62,0.00,,---,0.00,VWS V14.01,2013-02-04 20:51:00,
2013-02-04 14:53:00,39.4,27.1,29.78,NNE,15,4.0,13.0,61,0.00,,---,0.00,VWS V14.01,2013-02-04 20:53:00,
2013-02-04 14:54:00,39.4,27.1,29.78,NNE,17,6.0,13.0,61,0.00,,---,0.00,VWS V14.01,2013-02-04 20:54:00,
2013-02-04 14:55:00,39.3,27.0,29.78,NE,44,5.0,13.0,61,0.00,,---,0.00,VWS V14.01,2013-02-04 20:55:00,
2013-02-04 14:56:00,39.2,26.9,29.78,North,11,9.0,13.0,61,0.00,,---,0.00,VWS V14.01,2013-02-04 20:56:00,
2013-02-04 14:58:00,39.0,27.1,29.78,North,5,11.0,13.0,62,0.00,,---,0.00,VWS V14.01,2013-02-04 20:58:00,
2013-02-04 14:59:00,39.0,27.1,29.78,North,5,12.0,13.0,62,0.00,,---,0.00,VWS V14.01,2013-02-04 20:59:00,
2013-02-04 15:00:00,39.0,27.1,29.77,NNE,17,0.0,13.0,62,0.00,,---,0.00,VWS V14.01,2013-02-04 21:00:00,
2013-02-04 15:01:00,39.0,27.1,29.77,NNE,18,6.0,13.0,62,0.00,,---,0.00,VWS V14.01,2013-02-04 21:01:00,
2013-02-04 15:03:00,38.8,26.9,29.78,NNE,32,7.0,13.0,62,0.00,,---,0.00,VWS V14.01,2013-02-04 21:03:00,
2013-02-04 15:04:00,38.8,26.9,29.78,NNE,13,10.0,13.0,62,0.00,,---,0.00,VWS V14.01,2013-02-04 21:04:00,
2013-02-04 15:05:00,38.8,26.9,29.78,NE,34,7.0,13.0,62,0.00,,---,0.00,VWS V14.01,2013-02-04 21:05:00,
2013-02-04 15:06:00,38.7,26.8,29.78,NNE,26,4.0,13.0,62,0.00,,---,0.00,VWS V14.01,2013-02-04 21:06:00,
2013-02-04 15:09:00,38.6,26.7,29.78,NNE,23,4.0,13.0,62,0.00,,---,0.00,VWS V14.01,2013-02-04 21:09:00,
2013-02-04 15:10:00,38.6,26.7,29.78,NNE,14,6.0,13.0,62,0.00,,---,0.00,VWS V14.01,2013-02-04 21:10:00,
2013-02-04 15:11:00,38.6,27.1,29.78,North,360,3.0,13.0,63,0.00,,---,0.00,VWS V14.01,2013-02-04 21:11:00,
2013-02-04 15:14:00,38.4,26.9,29.78,NNE,22,10.0,13.0,63,0.00,,---,0.00,VWS V14.01,2013-02-04 21:14:00,
2013-02-04 15:15:00,38.4,26.9,29.78,North,11,10.0,13.0,63,0.00,,---,0.00,VWS V14.01,2013-02-04 21:15:00,
2013-02-04 15:16:00,38.4,26.9,29.78,NNE,26,4.0,13.0,63,0.00,,---,0.00,VWS V14.01,2013-02-04 21:16:00,
2013-02-04 15:19:00,38.5,27.4,29.79,NNW,346,2.0,13.0,64,0.00,,---,0.00,VWS V14.01,2013-02-04 21:19:00,
2013-02-04 15:20:00,38.5,27.4,29.79,NNE,22,9.0,13.0,64,0.00,,---,0.00,VWS V14.01,2013-02-04 21:20:00,
2013-02-04 15:21:00,38.5,27.4,29.79,North,360,6.0,13.0,64,0.00,,---,0.00,VWS V14.01,2013-02-04 21:21:00,
2013-02-04 15:24:00,38.3,27.2,29.79,NE,39,9.0,13.0,64,0.00,,---,0.00,VWS V14.01,2013-02-04 21:24:00,
2013-02-04 15:26:00,38.3,27.2,29.79,NNE,32,6.0,13.0,64,0.00,,---,0.00,VWS V14.01,2013-02-04 21:26:00,
2013-02-04 15:29:00,38.1,27.0,29.79,North,360,6.0,13.0,64,0.00,,---,0.00,VWS V14.01,2013-02-04 21:29:00,
2013-02-04 15:31:00,38.1,27.0,29.79,NNE,13,5.0,7.0,64,0.00,,---,0.00,VWS V14.01,2013-02-04 21:31:00,
2013-02-04 15:34:00,38.0,27.3,29.79,North,11,4.0,7.0,65,0.00,,---,0.00,VWS V14.01,2013-02-04 21:34:00,
2013-02-04 15:36:00,38.1,27.4,29.79,NNW,329,3.0,7.0,65,0.00,,---,0.00,VWS V14.01,2013-02-04 21:36:00,
2013-02-04 15:39:00,38.2,27.9,29.79,NE,40,5.0,11.0,66,0.00,,---,0.00,VWS V14.01,2013-02-04 21:39:00,
2013-02-04 15:40:00,38.1,27.4,29.79,NE,36,5.0,11.0,65,0.00,,---,0.00,VWS V14.01,2013-02-04 21:40:00,
2013-02-04 15:41:00,37.9,27.2,29.79,North,5,8.0,13.0,65,0.00,,---,0.00,VWS V14.01,2013-02-04 21:41:00,
2013-02-04 15:42:00,37.7,27.0,29.79,North,360,6.0,13.0,65,0.00,,---,0.00,VWS V14.01,2013-02-04 21:42:00,
2013-02-04 15:44:00,37.4,27.1,29.79,North,11,7.0,13.0,66,0.00,,---,0.00,VWS V14.01,2013-02-04 21:44:00,
2013-02-04 15:45:00,37.3,27.0,29.79,NNE,19,4.0,13.0,66,0.00,,---,0.00,VWS V14.01,2013-02-04 21:45:00,
2013-02-04 15:46:00,37.1,27.2,29.79,North,11,10.0,13.0,67,0.00,,---,0.00,VWS V14.01,2013-02-04 21:46:00,
2013-02-04 15:47:00,37.0,27.1,29.80,NNE,26,10.0,13.0,67,0.00,,---,0.00,VWS V14.01,2013-02-04 21:47:00,
2013-02-04 15:49:00,36.6,26.7,29.79,North,5,7.0,13.0,67,0.00,,---,0.00,VWS V14.01,2013-02-04 21:49:00,
2013-02-04 15:50:00,36.5,26.6,29.79,NNE,26,11.0,13.0,67,0.00,,---,0.00,VWS V14.01,2013-02-04 21:50:00,
2013-02-04 15:51:00,36.3,26.4,29.80,North,5,10.0,13.0,67,0.00,,---,0.00,VWS V14.01,2013-02-04 21:51:00,
2013-02-04 15:52:00,36.1,26.6,29.80,North,11,4.0,13.0,68,0.00,,---,0.00,VWS V14.01,2013-02-04 21:52:00,
2013-02-04 15:54:00,36.0,26.5,29.79,North,5,3.0,13.0,68,0.00,,---,0.00,VWS V14.01,2013-02-04 21:54:00,
2013-02-04 15:55:00,35.9,26.4,29.79,North,10,11.0,13.0,68,0.00,,---,0.00,VWS V14.01,2013-02-04 21:55:00,
2013-02-04 15:56:00,35.6,26.1,29.79,NNE,12,4.0,13.0,68,0.00,,---,0.00,VWS V14.01,2013-02-04 21:56:00,
2013-02-04 15:57:00,35.5,26.0,29.80,NNE,30,3.0,13.0,68,0.00,,---,0.00,VWS V14.01,2013-02-04 21:57:00,
2013-02-04 15:59:00,35.2,26.1,29.80,North,355,5.0,13.0,69,0.00,,---,0.00,VWS V14.01,2013-02-04 21:59:00,
2013-02-04 16:00:00,35.1,26.0,29.80,NNE,28,7.0,13.0,69,0.00,,---,0.00,VWS V14.01,2013-02-04 22:00:00,
2013-02-04 16:01:00,35.0,25.9,29.80,NE,46,4.0,6.0,69,0.00,,---,0.00,VWS V14.01,2013-02-04 22:01:00,
2013-02-04 16:02:00,34.9,25.8,29.79,NE,47,7.0,10.0,69,0.00,,---,0.00,VWS V14.01,2013-02-04 22:02:00,
2013-02-04 16:05:00,34.6,25.8,29.80,North,360,6.0,10.0,70,0.00,,---,0.00,VWS V14.01,2013-02-04 22:05:00,
2013-02-04 16:06:00,34.4,25.6,29.80,NNE,32,11.0,11.0,70,0.00,,---,0.00,VWS V14.01,2013-02-04 22:06:00,
2013-02-04 16:07:00,34.4,25.6,29.80,NE,42,4.0,11.0,70,0.00,,---,0.00,VWS V14.01,2013-02-04 22:07:00,
2013-02-04 16:10:00,34.2,25.5,29.80,NNE,22,3.0,11.0,70,0.00,,---,0.00,VWS V14.01,2013-02-04 22:10:00,
2013-02-04 16:12:00,34.0,25.6,29.80,North,351,4.0,11.0,71,0.00,,---,0.00,VWS V14.01,2013-02-04 22:12:00,
2013-02-04 16:13:00,33.9,25.5,29.80,NNE,13,5.0,11.0,71,0.00,,---,0.00,VWS V14.01,2013-02-04 22:13:00,
2013-02-04 16:15:00,33.6,25.2,29.80,NNW,344,3.0,11.0,71,0.00,,---,0.00,VWS V14.01,2013-02-04 22:15:00,
2013-02-04 16:17:00,33.4,25.0,29.80,NNE,18,8.0,11.0,71,0.00,,---,0.00,VWS V14.01,2013-02-04 22:17:00,
2013-02-04 16:18:00,33.4,25.0,29.80,NNE,20,4.0,11.0,71,0.00,,---,0.00,VWS V14.01,2013-02-04 22:18:00,
2013-02-04 16:20:00,33.3,25.3,29.80,NNE,19,5.0,12.0,72,0.00,,---,0.00,VWS V14.01,2013-02-04 22:20:00,
2013-02-04 16:22:00,33.3,25.3,29.80,NNE,20,5.0,12.0,72,0.00,,---,0.00,VWS V14.01,2013-02-04 22:22:00,
2013-02-04 16:23:00,33.3,25.3,29.80,NNE,27,2.0,12.0,72,0.00,,---,0.00,VWS V14.01,2013-02-04 22:23:00,
2013-02-04 16:25:00,33.3,25.6,29.80,NNE,17,4.0,12.0,73,0.00,,---,0.00,VWS V14.01,2013-02-04 22:25:00,
2013-02-04 16:27:00,33.2,25.5,29.80,NNE,19,3.0,12.0,73,0.00,,---,0.00,VWS V14.01,2013-02-04 22:27:00,
2013-02-04 16:28:00,33.2,25.5,29.80,North,350,7.0,12.0,73,0.00,,---,0.00,VWS V14.01,2013-02-04 22:28:00,
2013-02-04 16:30:00,33.0,25.3,29.80,NNW,343,7.0,12.0,73,0.00,,---,0.00,VWS V14.01,2013-02-04 22:30:00,
2013-02-04 16:32:00,32.7,25.3,29.81,North,5,6.0,7.0,74,0.00,,---,0.00,VWS V14.01,2013-02-04 22:32:00,
2013-02-04 16:33:00,32.6,25.2,29.81,NNE,26,4.0,7.0,74,0.00,,---,0.00,VWS V14.01,2013-02-04 22:33:00,
2013-02-04 16:35:00,32.5,25.1,29.81,North,5,2.0,9.0,74,0.00,,---,0.00,VWS V14.01,2013-02-04 22:35:00,
2013-02-04 16:36:00,32.4,25.0,29.81,NNW,327,9.0,9.0,74,0.00,,---,0.00,VWS V14.01,2013-02-04 22:36:00,
2013-02-04 16:37:00,32.3,25.0,29.81,NNW,337,4.0,9.0,74,0.00,,---,0.00,VWS V14.01,2013-02-04 22:37:00,
2013-02-04 16:38:00,32.3,25.3,29.81,North,9,6.0,9.0,75,0.00,,---,0.00,VWS V14.01,2013-02-04 22:38:00,
2013-02-04 16:40:00,32.2,25.2,29.81,NNE,13,2.0,9.0,75,0.00,,---,0.00,VWS V14.01,2013-02-04 22:40:00,
2013-02-04 16:41:00,32.1,25.1,29.81,NW,325,5.0,9.0,75,0.00,,---,0.00,VWS V14.01,2013-02-04 22:41:00,
2013-02-04 16:42:00,32.1,25.1,29.82,North,360,1.0,9.0,75,0.00,,---,0.00,VWS V14.01,2013-02-04 22:42:00,
2013-02-04 16:44:00,32.0,25.0,29.82,NNE,17,8.0,9.0,75,0.00,,---,0.00,VWS V14.01,2013-02-04 22:44:00,
2013-02-04 16:45:00,31.9,25.2,29.82,NNE,14,3.0,9.0,76,0.00,,---,0.00,VWS V14.01,2013-02-04 22:45:00,
2013-02-04 16:46:00,31.9,25.2,29.82,North,360,6.0,9.0,76,0.00,,---,0.00,VWS V14.01,2013-02-04 22:46:00,
2013-02-04 16:48:00,31.7,25.0,29.82,NNW,346,4.0,9.0,76,0.00,,---,0.00,VWS V14.01,2013-02-04 22:48:00,
2013-02-04 16:49:00,31.6,24.9,29.82,NNW,347,3.0,9.0,76,0.00,,---,0.00,VWS V14.01,2013-02-04 22:49:00,
2013-02-04 16:50:00,31.6,24.9,29.82,NNE,18,4.0,9.0,76,0.00,,---,0.00,VWS V14.01,2013-02-04 22:50:00,
2013-02-04 16:51:00,31.5,24.8,29.82,NNE,16,4.0,9.0,76,0.00,,---,0.00,VWS V14.01,2013-02-04 22:51:00,
2013-02-04 16:53:00,31.4,24.7,29.82,North,360,2.0,9.0,76,0.00,,---,0.00,VWS V14.01,2013-02-04 22:53:00,
2013-02-04 16:54:00,31.2,24.5,29.82,North,5,4.0,9.0,76,0.00,,---,0.00,VWS V14.01,2013-02-04 22:54:00,
2013-02-04 16:55:00,31.2,24.5,29.82,NNW,336,3.0,9.0,76,0.00,,---,0.00,VWS V14.01,2013-02-04 22:55:00,
2013-02-04 16:56:00,31.1,24.8,29.83,NW,322,3.0,9.0,77,0.00,,---,0.00,VWS V14.01,2013-02-04 22:56:00,
2013-02-04 16:58:00,31.0,24.6,29.83,NNW,348,4.0,9.0,77,0.00,,---,0.00,VWS V14.01,2013-02-04 22:58:00,
2013-02-04 16:59:00,30.9,26.4,29.83,NNW,340,5.0,10.0,83,0.00,,---,0.00,VWS V14.01,2013-02-04 22:59:00,
2013-02-04 17:00:00,30.8,24.5,29.83,NNW,334,3.0,10.0,77,0.00,,---,0.00,VWS V14.01,2013-02-04 23:00:00,
2013-02-04 17:01:00,30.7,24.4,29.83,NNE,22,5.0,5.0,77,0.00,,---,0.00,VWS V14.01,2013-02-04 23:01:00,
2013-02-04 17:03:00,30.6,24.3,29.83,North,355,4.0,5.0,77,0.00,,---,0.00,VWS V14.01,2013-02-04 23:03:00,
2013-02-04 17:04:00,30.5,24.2,29.83,NNW,340,3.0,5.0,77,0.00,,---,0.00,VWS V14.01,2013-02-04 23:04:00,
2013-02-04 17:05:00,30.5,24.2,29.83,NNW,347,5.0,5.0,77,0.00,,---,0.00,VWS V14.01,2013-02-04 23:05:00,
2013-02-04 17:06:00,30.4,24.4,29.83,North,355,8.0,8.0,78,0.00,,---,0.00,VWS V14.01,2013-02-04 23:06:00,
2013-02-04 17:08:00,30.3,24.3,29.83,North,355,2.0,8.0,78,0.00,,---,0.00,VWS V14.01,2013-02-04 23:08:00,
2013-02-04 17:10:00,30.2,24.2,29.84,North,5,1.0,8.0,78,0.00,,---,0.00,VWS V14.01,2013-02-04 23:10:00,
2013-02-04 17:11:00,30.2,24.2,29.84,North,5,2.0,12.0,78,0.00,,---,0.00,VWS V14.01,2013-02-04 23:11:00,
2013-02-04 17:13:00,30.1,24.1,29.84,North,355,3.0,12.0,78,0.00,,---,0.00,VWS V14.01,2013-02-04 23:13:00,
2013-02-04 17:15:00,30.1,24.1,29.84,NNW,348,2.0,12.0,78,0.00,,---,0.00,VWS V14.01,2013-02-04 23:15:00,
2013-02-04 17:16:00,30.1,24.1,29.84,North,350,4.0,12.0,78,0.00,,---,0.00,VWS V14.01,2013-02-04 23:16:00,
2013-02-04 17:19:00,30.1,24.4,29.84,North,350,6.0,12.0,79,0.00,,---,0.00,VWS V14.01,2013-02-04 23:19:00,
2013-02-04 17:20:00,30.1,24.4,29.84,North,355,1.0,12.0,79,0.00,,---,0.00,VWS V14.01,2013-02-04 23:20:00,
2013-02-04 17:21:00,30.1,24.4,29.85,North,355,3.0,12.0,79,0.00,,---,0.00,VWS V14.01,2013-02-04 23:21:00,
2013-02-04 17:24:00,30.0,24.3,29.85,North,355,2.0,12.0,79,0.00,,---,0.00,VWS V14.01,2013-02-04 23:24:00,
2013-02-04 17:25:00,30.0,24.3,29.85,North,360,3.0,12.0,79,0.00,,---,0.00,VWS V14.01,2013-02-04 23:25:00,
2013-02-04 17:26:00,30.0,24.3,29.85,NNW,338,3.0,12.0,79,0.00,,---,0.00,VWS V14.01,2013-02-04 23:26:00,
2013-02-04 17:29:00,29.9,24.2,29.85,North,355,8.0,12.0,79,0.00,,---,0.00,VWS V14.01,2013-02-04 23:29:00,
2013-02-04 17:30:00,29.9,24.2,29.85,North,360,6.0,12.0,79,0.00,,---,0.00,VWS V14.01,2013-02-04 23:30:00,
2013-02-04 17:31:00,29.9,24.2,29.85,NNE,23,4.0,5.0,79,0.00,,---,0.00,VWS V14.01,2013-02-04 23:31:00,
2013-02-04 17:34:00,29.9,24.2,29.85,North,351,3.0,7.0,79,0.00,,---,0.00,VWS V14.01,2013-02-04 23:34:00,
2013-02-04 17:35:00,29.9,24.2,29.86,North,5,4.0,7.0,79,0.00,,---,0.00,VWS V14.01,2013-02-04 23:35:00,
2013-02-04 17:36:00,29.9,24.2,29.86,NW,316,5.0,7.0,79,0.00,,---,0.00,VWS V14.01,2013-02-04 23:36:00,
2013-02-04 17:39:00,29.8,24.1,29.86,NNW,348,2.0,9.0,79,0.00,,---,0.00,VWS V14.01,2013-02-04 23:39:00,
2013-02-04 17:40:00,29.8,24.1,29.86,North,5,3.0,9.0,79,0.00,,---,0.00,VWS V14.01,2013-02-04 23:40:00,
2013-02-04 17:41:00,29.8,24.1,29.86,North,360,2.0,9.0,79,0.00,,---,0.00,VWS V14.01,2013-02-04 23:41:00,
2013-02-04 17:44:00,29.7,23.7,29.86,NNW,337,7.0,12.0,78,0.00,,---,0.00,VWS V14.01,2013-02-04 23:44:00,
2013-02-04 17:45:00,29.7,23.7,29.86,North,9,0.0,12.0,78,0.00,,---,0.00,VWS V14.01,2013-02-04 23:45:00,
2013-02-04 17:46:00,29.7,23.7,29.86,North,11,2.0,12.0,78,0.00,,---,0.00,VWS V14.01,2013-02-04 23:46:00,
2013-02-04 17:47:00,29.7,23.7,29.86,NW,326,7.0,12.0,78,0.00,,---,0.00,VWS V14.01,2013-02-04 23:47:00,
2013-02-04 17:50:00,29.6,23.9,29.86,NNE,12,2.0,12.0,79,0.00,,---,0.00,VWS V14.01,2013-02-04 23:50:00,
2013-02-04 17:51:00,29.6,23.9,29.86,NNE,12,1.0,12.0,79,0.00,,---,0.00,VWS V14.01,2013-02-04 23:51:00,
2013-02-04 17:52:00,29.6,23.9,29.86,NNE,12,1.0,12.0,79,0.00,,---,0.00,VWS V14.01,2013-02-04 23:52:00,
2013-02-04 17:55:00,29.6,23.9,29.87,NNE,12,1.0,12.0,79,0.00,,---,0.00,VWS V14.01,2013-02-04 23:55:00,
2013-02-04 17:56:00,29.6,23.9,29.87,NNE,12,1.0,12.0,79,0.00,,---,0.00,VWS V14.01,2013-02-04 23:56:00,
2013-02-04 17:57:00,29.3,24.8,29.87,NW,324,11.0,12.0,83,0.00,,---,0.00,VWS V14.01,2013-02-04 23:57:00,
2013-02-04 18:00:00,29.3,24.8,29.87,NNW,332,10.0,15.0,83,0.00,,---,0.00,VWS V14.01,2013-02-05 00:00:00,
2013-02-04 18:01:00,29.3,24.8,29.87,NNW,334,15.0,15.0,83,0.00,,---,0.00,VWS V14.01,2013-02-05 00:01:00,
2013-02-04 18:02:00,29.3,24.8,29.87,NNW,336,12.0,17.0,83,0.00,,---,0.00,VWS V14.01,2013-02-05 00:02:00,
2013-02-04 18:05:00,29.2,24.4,29.87,NNW,338,15.0,18.0,82,0.00,,---,0.00,VWS V14.01,2013-02-05 00:05:00,
2013-02-04 18:06:00,29.2,24.4,29.87,NNW,341,11.0,18.0,82,0.00,,---,0.00,VWS V14.01,2013-02-05 00:06:00,
2013-02-04 18:07:00,29.1,24.3,29.87,NNW,346,16.0,18.0,82,0.00,,---,0.00,VWS V14.01,2013-02-05 00:07:00,
2013-02-04 18:10:00,29.1,24.3,29.87,NNW,332,12.0,18.0,82,0.00,,---,0.00,VWS V14.01,2013-02-05 00:10:00,
2013-02-04 18:11:00,29.1,24.3,29.88,NNW,327,11.0,18.0,82,0.00,,---,0.00,VWS V14.01,2013-02-05 00:11:00,
2013-02-04 18:12:00,29.1,24.3,29.88,NNW,333,11.0,18.0,82,0.00,,---,0.00,VWS V14.01,2013-02-05 00:12:00,
2013-02-04 18:15:00,29.0,24.5,29.88,NNW,338,18.0,18.0,83,0.00,,---,0.00,VWS V14.01,2013-02-05 00:15:00,
2013-02-04 18:16:00,29.0,24.2,29.88,NNW,337,15.0,18.0,82,0.00,,---,0.00,VWS V14.01,2013-02-05 00:16:00,
2013-02-04 18:17:00,29.0,24.2,29.88,NNW,346,15.0,18.0,82,0.00,,---,0.00,VWS V14.01,2013-02-05 00:17:00,
2013-02-04 18:18:00,29.0,24.2,29.88,NNW,336,13.0,18.0,82,0.00,,---,0.00,VWS V14.01,2013-02-05 00:18:00,
2013-02-04 18:21:00,28.9,24.1,29.88,NNW,333,12.0,18.0,82,0.00,,---,0.00,VWS V14.01,2013-02-05 00:21:00,
2013-02-04 18:22:00,28.9,24.1,29.88,NNW,331,14.0,18.0,82,0.00,,---,0.00,VWS V14.01,2013-02-05 00:22:00,
2013-02-04 18:23:00,28.9,24.4,29.88,NNW,334,17.0,18.0,83,0.00,,---,0.00,VWS V14.01,2013-02-05 00:23:00,
2013-02-04 18:26:00,28.9,24.1,29.88,NNW,338,13.0,18.0,82,0.00,,---,0.00,VWS V14.01,2013-02-05 00:26:00,
2013-02-04 18:27:00,28.8,24.0,29.88,NNW,328,15.0,18.0,82,0.00,,---,0.00,VWS V14.01,2013-02-05 00:27:00,
2013-02-04 18:28:00,28.8,24.0,29.87,NW,326,12.0,18.0,82,0.00,,---,0.00,VWS V14.01,2013-02-05 00:28:00,
2013-02-04 18:31:00,28.7,23.9,29.87,NW,325,11.0,14.0,82,0.00,,---,0.00,VWS V14.01,2013-02-05 00:31:00,
2013-02-04 18:32:00,28.6,24.1,29.87,NNW,333,12.0,14.0,83,0.00,,---,0.00,VWS V14.01,2013-02-05 00:32:00,
2013-02-04 18:33:00,28.6,24.1,29.87,NNW,329,16.0,16.0,83,0.00,,---,0.00,VWS V14.01,2013-02-05 00:33:00,
2013-02-04 18:36:00,28.6,24.1,29.87,NNW,329,16.0,18.0,83,0.00,,---,0.00,VWS V14.01,2013-02-05 00:36:00,
2013-02-04 18:37:00,28.6,24.1,29.87,NNW,346,10.0,18.0,83,0.00,,---,0.00,VWS V14.01,2013-02-05 00:37:00,
2013-02-04 18:38:00,28.6,24.1,29.87,NNW,329,14.0,18.0,83,0.00,,---,0.00,VWS V14.01,2013-02-05 00:38:00,
2013-02-04 18:41:00,28.5,24.0,29.87,NNW,327,15.0,18.0,83,0.00,,---,0.00,VWS V14.01,2013-02-05 00:41:00,
2013-02-04 18:42:00,28.5,24.0,29.87,NW,323,12.0,18.0,83,0.00,,---,0.00,VWS V14.01,2013-02-05 00:42:00,
2013-02-04 18:43:00,28.5,24.0,29.87,NNW,337,17.0,18.0,83,0.00,,---,0.00,VWS V14.01,2013-02-05 00:43:00,
2013-02-04 18:46:00,28.5,24.0,29.88,NNW,327,18.0,18.0,83,0.00,,---,0.00,VWS V14.01,2013-02-05 00:46:00,
2013-02-04 18:47:00,28.5,24.0,29.88,NNW,337,14.0,19.0,83,0.00,,---,0.00,VWS V14.01,2013-02-05 00:47:00,
2013-02-04 18:48:00,28.5,24.0,29.88,NNW,336,19.0,20.0,83,0.00,,---,0.00,VWS V14.01,2013-02-05 00:48:00,
2013-02-04 18:49:00,28.5,24.0,29.88,NNW,337,17.0,20.0,83,0.00,,---,0.00,VWS V14.01,2013-02-05 00:49:00,
2013-02-04 18:51:00,28.4,23.9,29.88,NNW,338,18.0,20.0,83,0.00,,---,0.00,VWS V14.01,2013-02-05 00:51:00,
2013-02-04 18:52:00,28.4,23.9,29.88,NW,323,12.0,20.0,83,0.00,,---,0.00,VWS V14.01,2013-02-05 00:52:00,
2013-02-04 18:53:00,28.4,23.9,29.87,NNW,337,15.0,20.0,83,0.00,,---,0.00,VWS V14.01,2013-02-05 00:53:00,
2013-02-04 18:54:00,28.4,23.9,29.87,NNW,343,15.0,20.0,83,0.00,,---,0.00,VWS V14.01,2013-02-05 00:54:00,
2013-02-04 18:56:00,28.4,24.2,29.87,NNW,333,11.0,20.0,84,0.00,,---,0.00,VWS V14.01,2013-02-05 00:56:00,
2013-02-04 18:57:00,28.4,24.2,29.87,North,349,10.0,20.0,84,0.00,,---,0.00,VWS V14.01,2013-02-05 00:57:00,
2013-02-04 18:58:00,28.3,24.1,29.87,NNW,336,12.0,20.0,84,0.00,,---,0.00,VWS V14.01,2013-02-05 00:58:00,
2013-02-04 18:59:00,28.3,24.1,29.87,NNW,345,11.0,20.0,84,0.00,,---,0.00,VWS V14.01,2013-02-05 00:59:00,
2013-02-04 19:01:00,28.3,24.1,29.87,NW,316,15.0,15.0,84,0.00,,---,0.00,VWS V14.01,2013-02-05 01:01:00,
2013-02-04 19:02:00,28.3,23.8,29.87,NNW,338,10.0,15.0,83,0.00,,---,0.00,VWS V14.01,2013-02-05 01:02:00,
2013-02-04 19:03:00,28.3,23.8,29.87,North,351,6.0,15.0,83,0.00,,---,0.00,VWS V14.01,2013-02-05 01:03:00,
2013-02-04 19:04:00,28.3,24.1,29.87,NW,326,13.0,15.0,84,0.00,,---,0.00,VWS V14.01,2013-02-05 01:04:00,
2013-02-04 19:07:00,28.2,24.0,29.87,NNW,338,11.0,15.0,84,0.00,,---,0.00,VWS V14.01,2013-02-05 01:07:00,
2013-02-04 19:08:00,28.2,24.0,29.87,NNW,331,12.0,15.0,84,0.00,,---,0.00,VWS V14.01,2013-02-05 01:08:00,
2013-02-04 19:09:00,28.2,23.7,29.87,NNW,343,13.0,17.0,83,0.00,,---,0.00,VWS V14.01,2013-02-05 01:09:00,
2013-02-04 19:12:00,28.2,23.7,29.88,NNW,341,11.0,17.0,83,0.00,,---,0.00,VWS V14.01,2013-02-05 01:12:00,
2013-02-04 19:13:00,28.2,24.0,29.88,NW,326,12.0,17.0,84,0.00,,---,0.00,VWS V14.01,2013-02-05 01:13:00,
2013-02-04 19:15:00,28.2,23.7,29.88,NW,322,11.0,17.0,83,0.00,,---,0.00,VWS V14.01,2013-02-05 01:15:00,
2013-02-04 19:17:00,28.1,23.6,29.89,NNW,334,14.0,17.0,83,0.00,,---,0.00,VWS V14.01,2013-02-05 01:17:00,
2013-02-04 19:18:00,28.1,23.6,29.89,NW,325,13.0,17.0,83,0.00,,---,0.00,VWS V14.01,2013-02-05 01:18:00,
2013-02-04 19:20:00,28.1,23.6,29.88,NNW,332,15.0,17.0,83,0.00,,---,0.00,VWS V14.01,2013-02-05 01:20:00,
2013-02-04 19:22:00,28.0,23.5,29.88,NNW,342,10.0,17.0,83,0.00,,---,0.00,VWS V14.01,2013-02-05 01:22:00,
2013-02-04 19:23:00,28.0,23.5,29.88,North,349,11.0,17.0,83,0.00,,---,0.00,VWS V14.01,2013-02-05 01:23:00,
2013-02-04 19:25:00,28.0,23.5,29.88,NNW,333,10.0,17.0,83,0.00,,---,0.00,VWS V14.01,2013-02-05 01:25:00,
2013-02-04 19:27:00,27.9,23.4,29.88,NNW,330,13.0,17.0,83,0.00,,---,0.00,VWS V14.01,2013-02-05 01:27:00,
2013-02-04 19:28:00,27.9,23.4,29.88,NW,320,14.0,17.0,83,0.00,,---,0.00,VWS V14.01,2013-02-05 01:28:00,
2013-02-04 19:29:00,27.9,23.4,29.89,NNW,329,14.0,17.0,83,0.00,,---,0.00,VWS V14.01,2013-02-05 01:29:00,
2013-02-04 19:30:00,27.9,23.4,29.89,NW,320,9.0,17.0,83,0.00,,---,0.00,VWS V14.01,2013-02-05 01:30:00,
2013-02-04 19:33:00,27.9,23.4,29.89,North,350,10.0,14.0,83,0.00,,---,0.00,VWS V14.01,2013-02-05 01:33:00,
2013-02-04 19:34:00,27.9,23.4,29.88,NNW,331,12.0,14.0,83,0.00,,---,0.00,VWS V14.01,2013-02-05 01:34:00,
2013-02-04 19:35:00,27.9,23.4,29.88,NNW,333,13.0,14.0,83,0.00,,---,0.00,VWS V14.01,2013-02-05 01:35:00,
2013-02-04 19:38:00,27.8,23.3,29.88,NW,324,15.0,20.0,83,0.00,,---,0.00,VWS V14.01,2013-02-05 01:38:00,
2013-02-04 19:39:00,27.8,23.3,29.88,NW,324,15.0,20.0,83,0.00,,---,0.00,VWS V14.01,2013-02-05 01:39:00,
2013-02-04 19:40:00,27.8,23.3,29.88,NW,324,15.0,20.0,83,0.00,,---,0.00,VWS V14.01,2013-02-05 01:40:00,
2013-02-04 19:43:00,27.8,23.3,29.89,NW,323,9.0,20.0,83,0.00,,---,0.00,VWS V14.01,2013-02-05 01:43:00,
2013-02-04 19:44:00,27.8,23.3,29.89,NNW,337,5.0,20.0,83,0.00,,---,0.00,VWS V14.01,2013-02-05 01:44:00,
2013-02-04 19:45:00,27.8,23.6,29.89,NNW,339,7.0,20.0,84,0.00,,---,0.00,VWS V14.01,2013-02-05 01:45:00,
2013-02-04 19:48:00,27.8,23.6,29.88,NNW,331,10.0,20.0,84,0.00,,---,0.00,VWS V14.01,2013-02-05 01:48:00,
2013-02-04 19:49:00,27.8,23.6,29.88,NNW,341,11.0,20.0,84,0.00,,---,0.00,VWS V14.01,2013-02-05 01:49:00,
2013-02-04 19:50:00,27.8,23.6,29.89,NNW,346,12.0,20.0,84,0.00,,---,0.00,VWS V14.01,2013-02-05 01:50:00,
2013-02-04 19:51:00,27.8,23.6,29.88,NNW,331,9.0,20.0,84,0.00,,---,0.00,VWS V14.01,2013-02-05 01:51:00,
2013-02-04 19:53:00,27.8,23.6,29.89,North,10,11.0,20.0,84,0.00,,---,0.00,VWS V14.01,2013-02-05 01:53:00,
2013-02-04 19:54:00,27.8,23.6,29.89,NNW,340,9.0,20.0,84,0.00,,---,0.00,VWS V14.01,2013-02-05 01:54:00,
2013-02-04 19:55:00,27.7,23.5,29.88,NNW,339,7.0,20.0,84,0.00,,---,0.00,VWS V14.01,2013-02-05 01:55:00,
2013-02-04 19:56:00,27.7,23.5,29.88,NNW,332,12.0,20.0,84,0.00,,---,0.00,VWS V14.01,2013-02-05 01:56:00,
2013-02-04 19:59:00,27.8,23.6,29.88,NNW,341,11.0,20.0,84,0.00,,---,0.00,VWS V14.01,2013-02-05 01:59:00,
2013-02-04 20:00:00,27.7,23.5,29.88,NNW,337,9.0,20.0,84,0.00,,---,0.00,VWS V14.01,2013-02-05 02:00:00,
2013-02-04 20:01:00,27.7,23.5,29.88,NNW,337,9.0,10.0,84,0.00,,---,0.00,VWS V14.01,2013-02-05 02:01:00,
2013-02-04 20:04:00,27.6,23.1,29.87,NNW,345,10.0,14.0,83,0.00,,---,0.00,VWS V14.01,2013-02-05 02:04:00,
2013-02-04 20:05:00,27.6,23.1,29.87,NNE,27,12.0,14.0,83,0.00,,---,0.00,VWS V14.01,2013-02-05 02:05:00,
2013-02-04 20:06:00,27.5,23.0,29.87,North,5,7.0,14.0,83,0.00,,---,0.00,VWS V14.01,2013-02-05 02:06:00,
2013-02-04 20:09:00,27.5,23.3,29.87,NNW,346,13.0,14.0,84,0.00,,---,0.00,VWS V14.01,2013-02-05 02:09:00,
2013-02-04 20:10:00,27.5,23.3,29.88,NNE,18,13.0,14.0,84,0.00,,---,0.00,VWS V14.01,2013-02-05 02:10:00,
2013-02-04 20:11:00,27.5,23.3,29.88,NNE,24,10.0,14.0,84,0.00,,---,0.00,VWS V14.01,2013-02-05 02:11:00,
2013-02-04 20:14:00,27.5,23.3,29.88,North,350,5.0,14.0,84,0.00,,---,0.00,VWS V14.01,2013-02-05 02:14:00,
2013-02-04 20:15:00,27.5,23.0,29.88,NE,48,7.0,14.0,83,0.00,,---,0.00,VWS V14.01,2013-02-05 02:15:00,
2013-02-04 20:16:00,27.5,23.3,29.88,NNE,20,9.0,14.0,84,0.00,,---,0.00,VWS V14.01,2013-02-05 02:16:00,
2013-02-04 20:19:00,27.5,23.3,29.88,NNW,342,10.0,14.0,84,0.00,,---,0.00,VWS V14.01,2013-02-05 02:19:00,
2013-02-04 20:20:00,27.4,23.2,29.88,NNW,340,12.0,14.0,84,0.00,,---,0.00,VWS V14.01,2013-02-05 02:20:00,
2013-02-04 20:22:00,27.4,23.2,29.88,NNW,331,7.0,14.0,84,0.00,,---,0.00,VWS V14.01,2013-02-05 02:22:00,
2013-02-04 20:24:00,27.4,23.2,29.88,NW,310,10.0,14.0,84,0.00,,---,0.00,VWS V14.01,2013-02-05 02:24:00,
2013-02-04 20:25:00,27.4,23.2,29.88,NW,321,8.0,14.0,84,0.00,,---,0.00,VWS V14.01,2013-02-05 02:25:00,
2013-02-04 20:27:00,27.3,23.1,29.88,NNW,343,7.0,14.0,84,0.00,,---,0.00,VWS V14.01,2013-02-05 02:27:00,
2013-02-04 20:29:00,27.3,23.1,29.88,NNW,343,7.0,14.0,84,0.00,,---,0.00,VWS V14.01,2013-02-05 02:29:00,
2013-02-04 20:30:00,27.3,23.1,29.88,NNW,345,10.0,14.0,84,0.00,,---,0.00,VWS V14.01,2013-02-05 02:30:00,
2013-02-04 20:32:00,27.3,23.1,29.88,NNW,342,7.0,12.0,84,0.00,,---,0.00,VWS V14.01,2013-02-05 02:32:00,
2013-02-04 20:34:00,27.3,23.1,29.88,NNW,327,10.0,12.0,84,0.00,,---,0.00,VWS V14.01,2013-02-05 02:34:00,
2013-02-04 20:35:00,27.3,23.1,29.88,NNW,339,6.0,12.0,84,0.00,,---,0.00,VWS V14.01,2013-02-05 02:35:00,
2013-02-04 20:37:00,27.3,23.1,29.88,NNW,344,8.0,12.0,84,0.00,,---,0.00,VWS V14.01,2013-02-05 02:37:00,
2013-02-04 20:39:00,27.3,23.1,29.88,NNE,32,7.0,12.0,84,0.00,,---,0.00,VWS V14.01,2013-02-05 02:39:00,
2013-02-04 20:40:00,27.3,23.1,29.88,NNE,16,6.0,12.0,84,0.00,,---,0.00,VWS V14.01,2013-02-05 02:40:00,
2013-02-04 20:42:00,27.3,23.1,29.89,NNW,329,9.0,12.0,84,0.00,,---,0.00,VWS V14.01,2013-02-05 02:42:00,
2013-02-04 20:44:00,27.3,23.1,29.89,NNW,347,6.0,12.0,84,0.00,,---,0.00,VWS V14.01,2013-02-05 02:44:00,
2013-02-04 20:45:00,27.3,23.1,29.89,NNW,331,6.0,12.0,84,0.00,,---,0.00,VWS V14.01,2013-02-05 02:45:00,
2013-02-04 20:46:00,27.3,23.1,29.89,NNW,340,7.0,12.0,84,0.00,,---,0.00,VWS V14.01,2013-02-05 02:46:00,
2013-02-04 20:47:00,27.3,23.1,29.89,NNW,345,7.0,12.0,84,0.00,,---,0.00,VWS V14.01,2013-02-05 02:47:00,
2013-02-04 20:50:00,27.3,23.1,29.89,NNE,23,6.0,12.0,84,0.00,,---,0.00,VWS V14.01,2013-02-05 02:50:00,
2013-02-04 20:51:00,27.3,23.1,29.89,NNW,347,6.0,12.0,84,0.00,,---,0.00,VWS V14.01,2013-02-05 02:51:00,
2013-02-04 20:52:00,27.3,23.1,29.89,NNW,328,6.0,12.0,84,0.00,,---,0.00,VWS V14.01,2013-02-05 02:52:00,
2013-02-04 20:55:00,27.3,23.1,29.89,NNW,344,5.0,12.0,84,0.00,,---,0.00,VWS V14.01,2013-02-05 02:55:00,
2013-02-04 20:56:00,27.3,23.1,29.89,NNW,333,6.0,12.0,84,0.00,,---,0.00,VWS V14.01,2013-02-05 02:56:00,
2013-02-04 20:57:00,27.3,23.1,29.89,NNW,340,5.0,12.0,84,0.00,,---,0.00,VWS V14.01,2013-02-05 02:57:00,
2013-02-04 21:00:00,27.3,23.1,29.89,NNW,341,4.0,12.0,84,0.00,,---,0.00,VWS V14.01,2013-02-05 03:00:00,
2013-02-04 21:01:00,27.3,23.1,29.89,NNW,341,4.0,5.0,84,0.00,,---,0.00,VWS V14.01,2013-02-05 03:01:00,
2013-02-04 21:02:00,27.3,23.1,29.89,NNW,341,4.0,5.0,84,0.00,,---,0.00,VWS V14.01,2013-02-05 03:02:00,
2013-02-04 21:05:00,27.2,21.6,29.89,NNE,22,0.0,5.0,79,0.00,,---,0.00,VWS V14.01,2013-02-05 03:05:00,
2013-02-04 21:06:00,27.2,21.6,29.89,NNE,22,0.0,5.0,79,0.00,,---,0.00,VWS V14.01,2013-02-05 03:06:00,
2013-02-04 21:07:00,27.2,21.9,29.89,NNE,22,0.0,5.0,80,0.00,,---,0.00,VWS V14.01,2013-02-05 03:07:00,
2013-02-04 21:10:00,27.2,21.9,29.89,NNE,22,0.0,5.0,80,0.00,,---,0.00,VWS V14.01,2013-02-05 03:10:00,
2013-02-04 21:11:00,27.2,21.9,29.90,NNE,22,0.0,5.0,80,0.00,,---,0.00,VWS V14.01,2013-02-05 03:11:00,
2013-02-04 21:12:00,27.2,21.9,29.90,NNE,22,0.0,5.0,80,0.00,,---,0.00,VWS V14.01,2013-02-05 03:12:00,
2013-02-04 21:15:00,27.2,21.9,29.90,NNE,22,2.0,5.0,80,0.00,,---,0.00,VWS V14.01,2013-02-05 03:15:00,
2013-02-04 21:16:00,27.2,21.9,29.90,NNE,22,0.0,5.0,80,0.00,,---,0.00,VWS V14.01,2013-02-05 03:16:00,
2013-02-04 21:17:00,27.3,22.0,29.90,NNE,22,0.0,5.0,80,0.00,,---,0.00,VWS V14.01,2013-02-05 03:17:00,
2013-02-04 21:20:00,27.2,21.9,29.90,NNE,22,0.0,5.0,80,0.00,,---,0.00,VWS V14.01,2013-02-05 03:20:00,
2013-02-04 21:21:00,27.2,21.9,29.90,NNE,22,0.0,5.0,80,0.00,,---,0.00,VWS V14.01,2013-02-05 03:21:00,
2013-02-04 21:22:00,27.2,21.9,29.90,NNE,22,0.0,5.0,80,0.00,,---,0.00,VWS V14.01,2013-02-05 03:22:00,
2013-02-04 21:25:00,27.1,21.8,29.91,NNE,22,3.0,5.0,80,0.00,,---,0.00,VWS V14.01,2013-02-05 03:25:00,
2013-02-04 21:26:00,27.1,21.8,29.91,NNE,17,2.0,5.0,80,0.00,,---,0.00,VWS V14.01,2013-02-05 03:26:00,
2013-02-04 21:27:00,27.1,21.8,29.91,NNE,17,0.0,5.0,80,0.00,,---,0.00,VWS V14.01,2013-02-05 03:27:00,
2013-02-04 21:31:00,27.0,22.0,29.91,NNW,336,3.0,5.0,81,0.00,,---,0.00,VWS V14.01,2013-02-05 03:31:00,
2013-02-04 21:33:00,27.0,22.0,29.91,NNW,337,2.0,5.0,81,0.00,,---,0.00,VWS V14.01,2013-02-05 03:33:00,
2013-02-04 21:36:00,27.0,22.0,29.91,NNW,342,0.0,5.0,81,0.00,,---,0.00,VWS V14.01,2013-02-05 03:36:00,
2013-02-04 21:38:00,26.9,21.9,29.91,NNW,342,0.0,5.0,81,0.00,,---,0.00,VWS V14.01,2013-02-05 03:38:00,
2013-02-04 21:41:00,26.9,21.9,29.91,NNW,342,0.0,5.0,81,0.00,,---,0.00,VWS V14.01,2013-02-05 03:41:00,
2013-02-04 21:43:00,26.9,21.9,29.91,North,355,0.0,5.0,81,0.00,,---,0.00,VWS V14.01,2013-02-05 03:43:00,
2013-02-04 21:46:00,26.9,21.9,29.91,North,355,0.0,5.0,81,0.00,,---,0.00,VWS V14.01,2013-02-05 03:46:00,
2013-02-04 21:48:00,26.9,21.9,29.91,North,355,0.0,5.0,81,0.00,,---,0.00,VWS V14.01,2013-02-05 03:48:00,
2013-02-04 21:51:00,26.9,21.9,29.91,North,355,0.0,5.0,81,0.00,,---,0.00,VWS V14.01,2013-02-05 03:51:00,
2013-02-04 21:53:00,26.9,21.9,29.90,North,355,0.0,5.0,81,0.00,,---,0.00,VWS V14.01,2013-02-05 03:53:00,
2013-02-04 21:56:00,26.8,21.8,29.91,North,355,0.0,5.0,81,0.00,,---,0.00,VWS V14.01,2013-02-05 03:56:00,
2013-02-04 21:59:00,26.8,21.8,29.91,North,355,0.0,5.0,81,0.00,,---,0.00,VWS V14.01,2013-02-05 03:59:00,
2013-02-04 22:01:00,26.8,21.8,29.91,North,355,0.0,0.0,81,0.00,,---,0.00,VWS V14.01,2013-02-05 04:01:00,
2013-02-04 22:04:00,26.8,21.8,29.91,North,355,0.0,0.0,81,0.00,,---,0.00,VWS V14.01,2013-02-05 04:04:00,
2013-02-04 22:06:00,26.8,21.8,29.91,North,355,0.0,2.0,81,0.00,,---,0.00,VWS V14.01,2013-02-05 04:06:00,
2013-02-04 22:09:00,26.8,21.8,29.91,North,355,2.0,2.0,81,0.00,,---,0.00,VWS V14.01,2013-02-05 04:09:00,
2013-02-04 22:11:00,26.8,21.8,29.91,North,355,0.0,2.0,81,0.00,,---,0.00,VWS V14.01,2013-02-05 04:11:00,
2013-02-04 22:14:00,26.7,22.8,29.91,NW,311,3.0,5.0,85,0.00,,---,0.00,VWS V14.01,2013-02-05 04:14:00,
2013-02-04 22:16:00,26.7,22.8,29.91,NW,323,3.0,5.0,85,0.00,,---,0.00,VWS V14.01,2013-02-05 04:16:00,
2013-02-04 22:17:00,26.7,22.8,29.91,NW,321,3.0,5.0,85,0.00,,---,0.00,VWS V14.01,2013-02-05 04:17:00,
2013-02-04 22:19:00,26.7,22.8,29.91,NW,321,5.0,5.0,85,0.00,,---,0.00,VWS V14.01,2013-02-05 04:19:00,
2013-02-04 22:21:00,26.7,22.8,29.91,NW,312,3.0,6.0,85,0.00,,---,0.00,VWS V14.01,2013-02-05 04:21:00,
2013-02-04 22:22:00,26.7,22.8,29.91,NW,311,3.0,6.0,85,0.00,,---,0.00,VWS V14.01,2013-02-05 04:22:00,
2013-02-04 22:24:00,26.6,22.7,29.91,NW,317,4.0,6.0,85,0.00,,---,0.00,VWS V14.01,2013-02-05 04:24:00,
2013-02-04 22:26:00,26.6,22.7,29.91,WNW,300,4.0,6.0,85,0.00,,---,0.00,VWS V14.01,2013-02-05 04:26:00,
2013-02-04 22:27:00,26.6,22.7,29.91,NW,309,6.0,6.0,85,0.00,,---,0.00,VWS V14.01,2013-02-05 04:27:00,
2013-02-04 22:29:00,26.6,22.7,29.91,NW,307,3.0,6.0,85,0.00,,---,0.00,VWS V14.01,2013-02-05 04:29:00,
2013-02-04 22:31:00,26.6,22.7,29.91,NW,306,5.0,6.0,85,0.00,,---,0.00,VWS V14.01,2013-02-05 04:31:00,
2013-02-04 22:32:00,26.6,22.7,29.91,NW,307,5.0,6.0,85,0.00,,---,0.00,VWS V14.01,2013-02-05 04:32:00,
2013-02-04 22:34:00,26.6,22.7,29.91,NNW,334,7.0,10.0,85,0.00,,---,0.00,VWS V14.01,2013-02-05 04:34:00,
2013-02-04 22:36:00,26.6,22.7,29.91,NNW,334,6.0,10.0,85,0.00,,---,0.00,VWS V14.01,2013-02-05 04:36:00,
2013-02-04 22:37:00,26.6,22.7,29.91,NNW,327,8.0,10.0,85,0.00,,---,0.00,VWS V14.01,2013-02-05 04:37:00,
2013-02-04 22:39:00,26.6,22.7,29.92,NNW,338,7.0,10.0,85,0.00,,---,0.00,VWS V14.01,2013-02-05 04:39:00,
2013-02-04 22:42:00,26.6,22.7,29.91,WNW,299,5.0,10.0,85,0.00,,---,0.00,VWS V14.01,2013-02-05 04:42:00,
2013-02-04 22:45:00,26.6,22.7,29.92,NW,319,4.0,10.0,85,0.00,,---,0.00,VWS V14.01,2013-02-05 04:45:00,
2013-02-04 22:47:00,26.6,22.7,29.91,NW,316,3.0,10.0,85,0.00,,---,0.00,VWS V14.01,2013-02-05 04:47:00,
2013-02-04 22:50:00,26.6,22.7,29.91,NW,309,4.0,10.0,85,0.00,,---,0.00,VWS V14.01,2013-02-05 04:50:00,
2013-02-04 22:52:00,26.6,22.7,29.91,WNW,300,3.0,10.0,85,0.00,,---,0.00,VWS V14.01,2013-02-05 04:52:00,
2013-02-04 22:55:00,26.6,22.7,29.91,NW,320,5.0,10.0,85,0.00,,---,0.00,VWS V14.01,2013-02-05 04:55:00,
2013-02-04 22:57:00,26.6,22.7,29.91,NNW,327,3.0,10.0,85,0.00,,---,0.00,VWS V14.01,2013-02-05 04:57:00,
2013-02-04 22:58:00,26.6,22.7,29.91,NW,307,5.0,10.0,85,0.00,,---,0.00,VWS V14.01,2013-02-05 04:58:00,
2013-02-04 23:00:00,26.5,22.6,29.91,NW,311,4.0,10.0,85,0.00,,---,0.00,VWS V14.01,2013-02-05 05:00:00,
2013-02-04 23:05:00,26.5,22.6,29.91,NW,314,4.0,5.0,85,0.00,,---,0.00,VWS V14.01,2013-02-05 05:05:00,
2013-02-04 23:10:00,26.5,22.6,29.90,NW,314,3.0,5.0,85,0.00,,---,0.00,VWS V14.01,2013-02-05 05:10:00,
2013-02-04 23:11:00,26.5,22.6,29.90,NNW,328,1.0,5.0,85,0.00,,---,0.00,VWS V14.01,2013-02-05 05:11:00,
2013-02-04 23:15:00,26.4,22.5,29.90,NW,321,3.0,5.0,85,0.00,,---,0.00,VWS V14.01,2013-02-05 05:15:00,
2013-02-04 23:16:00,26.4,22.5,29.90,NNW,331,2.0,5.0,85,0.00,,---,0.00,VWS V14.01,2013-02-05 05:16:00,
2013-02-04 23:20:00,26.3,22.4,29.90,NW,315,1.0,5.0,85,0.00,,---,0.00,VWS V14.01,2013-02-05 05:20:00,
2013-02-04 23:21:00,26.3,22.4,29.90,NW,315,0.0,5.0,85,0.00,,---,0.00,VWS V14.01,2013-02-05 05:21:00,
2013-02-04 23:25:00,26.1,22.2,29.89,NW,315,0.0,5.0,85,0.00,,---,0.00,VWS V14.01,2013-02-05 05:25:00,
2013-02-04 23:26:00,26.1,22.2,29.89,NW,315,0.0,5.0,85,0.00,,---,0.00,VWS V14.01,2013-02-05 05:26:00,
2013-02-04 23:30:00,26.0,22.1,29.89,NW,315,0.0,5.0,85,0.00,,---,0.00,VWS V14.01,2013-02-05 05:30:00,
2013-02-04 23:31:00,25.9,22.0,29.89,NW,315,0.0,0.0,85,0.00,,---,0.00,VWS V14.01,2013-02-05 05:31:00,
2013-02-04 23:35:00,25.8,22.2,29.89,NW,315,0.0,0.0,86,0.00,,---,0.00,VWS V14.01,2013-02-05 05:35:00,
2013-02-04 23:36:00,25.8,22.2,29.90,NW,315,0.0,0.0,86,0.00,,---,0.00,VWS V14.01,2013-02-05 05:36:00,
2013-02-04 23:40:00,25.7,21.8,29.89,West,275,0.0,1.0,85,0.00,,---,0.00,VWS V14.01,2013-02-05 05:40:00,
2013-02-04 23:41:00,25.7,21.8,29.89,West,275,1.0,1.0,85,0.00,,---,0.00,VWS V14.01,2013-02-05 05:41:00,
2013-02-04 23:42:00,25.7,21.8,29.89,West,261,1.0,1.0,85,0.00,,---,0.00,VWS V14.01,2013-02-05 05:42:00,
2013-02-04 23:45:00,25.6,21.7,29.90,West,277,0.0,1.0,85,0.00,,---,0.00,VWS V14.01,2013-02-05 05:45:00,
2013-02-04 23:46:00,25.6,21.7,29.90,West,277,1.0,1.0,85,0.00,,---,0.00,VWS V14.01,2013-02-05 05:46:00,
2013-02-04 23:47:00,25.5,21.6,29.90,West,277,1.0,1.0,85,0.00,,---,0.00,VWS V14.01,2013-02-05 05:47:00,
2013-02-04 23:50:00,25.4,21.8,29.90,WNW,288,1.0,1.0,86,0.00,,---,0.00,VWS V14.01,2013-02-05 05:50:00,
2013-02-04 23:51:00,25.4,21.8,29.90,WNW,288,1.0,1.0,86,0.00,,---,0.00,VWS V14.01,2013-02-05 05:51:00,
2013-02-04 23:52:00,25.4,21.8,29.90,WNW,288,0.0,1.0,86,0.00,,---,0.00,VWS V14.01,2013-02-05 05:52:00,
2013-02-04 23:56:00,25.3,21.7,29.90,NW,314,1.0,3.0,86,0.00,,---,0.00,VWS V14.01,2013-02-05 05:56:00,
2013-02-04 23:57:00,25.3,21.7,29.90,NW,309,1.0,3.0,86,0.00,,---,0.00,VWS V14.01,2013-02-05 05:57:00,